ABG203 UHWW-FACT

Flight info

Callsign ABG203
Flight time 17h 3m
Altitude 29000
Route VATIS2F VATIS A900 RIVAT G711 KANSU/N0494F300 B467 TENAS A586 CJU Z82 PANSI Y711 MUGUS Y742 SALMI B576 APU DCT MKG/N0504F320 DCT KAPLI DCT IDOSI P901 IKELA/K0933F320 A1 PAPRA/N0505F320 R575 SMU W32 DORNA Y3 PUT/N0497F340 P627 KADAP R348 NKW/N0489F360 R348 RUPIG UR348 IXAMO/N0480F380 UR348 TNV UB536 EROPA UT536 VMA UM310 TONKA UT949 WRV UZ36 EPTOT/N0483F400 UZ36 BLV UW95 PVV UZ40 ESRUK UQ51 GETEN GETEN1B
Aircraft B77L/H-SDE1E2E3FGHIJ2J3J4J5M1RWXY/LB1D1

Departure

Time 2026-04-15 22:32
Airport Vladivostok International Airport (UHWW)

Arrival

Time 2026-04-16 15:35
Airport Cape Town International Airport (FACT)
Time Latitude Longitude Altitude Speed Heading
2026-04-15 22:24 43.39838 132.16351 37 ft 0 kts 150°
2026-04-15 22:26 43.39809 132.16358 37 ft 9 kts 187°
2026-04-15 22:26 43.39757 132.16295 36 ft 10 kts 241°
2026-04-15 22:27 43.39792 132.16185 37 ft 18 kts 322°
2026-04-15 22:27 43.39880 132.16069 37 ft 17 kts 280°
2026-04-15 22:27 43.39833 132.15913 37 ft 19 kts 239°
2026-04-15 22:27 43.39757 132.15728 37 ft 25 kts 241°
2026-04-15 22:28 43.39674 132.15518 37 ft 25 kts 240°
2026-04-15 22:28 43.39589 132.15310 37 ft 25 kts 240°
2026-04-15 22:28 43.39505 132.15100 37 ft 25 kts 242°
2026-04-15 22:28 43.39421 132.14891 37 ft 25 kts 241°
2026-04-15 22:29 43.39336 132.14682 36 ft 25 kts 241°
2026-04-15 22:29 43.39252 132.14474 36 ft 25 kts 241°
2026-04-15 22:29 43.39167 132.14266 37 ft 25 kts 241°
2026-04-15 22:29 43.39083 132.14057 36 ft 25 kts 241°
2026-04-15 22:30 43.38999 132.13849 36 ft 25 kts 241°
2026-04-15 22:30 43.38916 132.13643 37 ft 25 kts 241°
2026-04-15 22:30 43.38832 132.13435 37 ft 25 kts 241°
2026-04-15 22:30 43.38784 132.13217 37 ft 25 kts 298°
2026-04-15 22:31 43.38933 132.13129 37 ft 18 kts 20°
2026-04-15 22:31 43.38981 132.13205 37 ft 0 kts 62°
2026-04-15 22:31 43.39017 132.13292 37 ft 41 kts 60°
2026-04-15 22:31 43.39302 132.13994 39 ft 126 kts 60°
2026-04-15 22:32 43.39857 132.15373 101 ft 194 kts 62°
2026-04-15 22:32 43.40543 132.17042 672 ft 208 kts 62°
2026-04-15 22:32 43.41227 132.18827 1493 ft 207 kts 62°
2026-04-15 22:32 43.41934 132.20598 2125 ft 221 kts 62°
2026-04-15 22:33 43.42726 132.22532 2329 ft 243 kts 62°
2026-04-15 22:33 43.43568 132.24601 2833 ft 253 kts 62°
2026-04-15 22:33 43.44439 132.26747 3445 ft 260 kts 62°
2026-04-15 22:33 43.45326 132.28939 4100 ft 265 kts 62°
2026-04-15 22:34 43.46218 132.31147 4774 ft 269 kts 62°
2026-04-15 22:34 43.47140 132.33449 5419 ft 272 kts 66°
2026-04-15 22:34 43.47599 132.35928 5878 ft 276 kts 96°
2026-04-15 22:34 43.47059 132.38406 6509 ft 271 kts 128°
2026-04-15 22:35 43.45745 132.40230 7067 ft 272 kts 147°
2026-04-15 22:35 43.44117 132.41588 7632 ft 276 kts 152°
2026-04-15 22:35 43.42394 132.42770 8183 ft 278 kts 165°
2026-04-15 22:35 43.40474 132.42940 8662 ft 280 kts 195°
2026-04-15 22:36 43.38721 132.41825 9220 ft 281 kts 221°
2026-04-15 22:36 43.37463 132.39787 9772 ft 280 kts 242°
2026-04-15 22:36 43.36571 132.37427 10247 ft 285 kts 245°
2026-04-15 22:36 43.35664 132.34950 10648 ft 298 kts 245°
2026-04-15 22:37 43.34701 132.32314 10816 ft 318 kts 245°
2026-04-15 22:37 43.33666 132.29508 10981 ft 339 kts 245°
2026-04-15 22:37 43.32560 132.26535 11223 ft 357 kts 245°
2026-04-15 22:37 43.31397 132.23469 11678 ft 365 kts 242°
2026-04-15 22:38 43.29742 132.20754 12115 ft 381 kts 220°
2026-04-15 22:38 43.27377 132.19047 12870 ft 390 kts 200°
2026-04-15 22:38 43.24687 132.18366 13497 ft 396 kts 187°
2026-04-15 22:38 43.21943 132.18094 13966 ft 405 kts 186°
2026-04-15 22:39 43.19117 132.17881 14571 ft 409 kts 186°
2026-04-15 22:39 43.16267 132.17669 15201 ft 412 kts 186°
2026-04-15 22:39 43.13395 132.17433 15816 ft 415 kts 186°
2026-04-15 22:39 43.10496 132.17173 16401 ft 419 kts 187°
2026-04-15 22:40 43.07573 132.16894 16964 ft 423 kts 187°
2026-04-15 22:40 43.04621 132.16599 17518 ft 427 kts 187°
2026-04-15 22:40 43.01643 132.16299 18073 ft 431 kts 187°
2026-04-15 22:41 42.95602 132.15689 19143 ft 438 kts 187°
2026-04-15 22:41 42.92551 132.15384 19663 ft 442 kts 187°
2026-04-15 22:41 42.89470 132.15077 20168 ft 446 kts 187°
2026-04-15 22:41 42.86365 132.14769 20665 ft 449 kts 186°
2026-04-15 22:42 42.83221 132.14711 21097 ft 455 kts 180°
2026-04-15 22:42 42.80041 132.14974 21562 ft 459 kts 177°
2026-04-15 22:42 42.76844 132.15355 22051 ft 462 kts 176°
2026-04-15 22:42 42.73632 132.15745 22520 ft 465 kts 177°
2026-04-15 22:43 42.70434 132.16101 22939 ft 469 kts 177°
2026-04-15 22:43 42.67171 132.16425 23362 ft 472 kts 178°
2026-04-15 22:43 42.63879 132.16726 23792 ft 476 kts 178°
2026-04-15 22:43 42.60566 132.17015 24201 ft 479 kts 178°
2026-04-15 22:44 42.57231 132.17302 24633 ft 481 kts 178°
2026-04-15 22:44 42.53868 132.17591 24974 ft 486 kts 178°
2026-04-15 22:44 42.50473 132.17884 25285 ft 492 kts 178°
2026-04-15 22:44 42.47038 132.18185 25643 ft 495 kts 178°
2026-04-15 22:45 42.43590 132.18487 26013 ft 499 kts 178°
2026-04-15 22:45 42.40112 132.18790 26358 ft 503 kts 178°
2026-04-15 22:45 42.36604 132.19093 26660 ft 507 kts 178°
2026-04-15 22:45 42.33070 132.19395 26951 ft 511 kts 178°
2026-04-15 22:46 42.29498 132.19704 27249 ft 516 kts 178°
2026-04-15 22:46 42.25904 132.20018 27600 ft 519 kts 178°
2026-04-15 22:46 42.22340 132.20327 27934 ft 522 kts 178°
2026-04-15 22:46 42.18699 132.20641 28226 ft 525 kts 178°
2026-04-15 22:47 42.15036 132.20959 28494 ft 530 kts 178°
2026-04-15 22:47 42.11337 132.21275 28760 ft 533 kts 178°
2026-04-15 22:47 42.07620 132.21593 29015 ft 538 kts 178°
2026-04-15 22:47 42.03873 132.21920 29303 ft 540 kts 178°
2026-04-15 22:48 42.00112 132.22245 29575 ft 542 kts 179°
2026-04-15 22:48 41.96340 132.22569 29857 ft 545 kts 179°
2026-04-15 22:48 41.92557 132.22892 30176 ft 545 kts 179°
2026-04-15 22:48 41.88815 132.23215 30550 ft 544 kts 179°
2026-04-15 22:49 41.85052 132.23543 31051 ft 540 kts 179°
2026-04-15 22:49 41.81309 132.23865 31449 ft 538 kts 179°
2026-04-15 22:49 41.77574 132.24182 31744 ft 538 kts 179°
2026-04-15 22:49 41.73843 132.24499 32034 ft 538 kts 180°
2026-04-15 22:50 41.70099 132.24816 32193 ft 541 kts 180°
2026-04-15 22:50 41.66331 132.25136 32226 ft 541 kts 180°
2026-04-15 22:50 41.58902 132.25771 32223 ft 535 kts 180°
2026-04-15 22:51 41.51487 132.26400 32230 ft 533 kts 180°
2026-04-15 22:51 41.44090 132.27020 32234 ft 533 kts 180°
2026-04-15 22:52 41.36686 132.27617 32226 ft 533 kts 180°
2026-04-15 22:52 41.29277 132.28207 32222 ft 533 kts 180°
2026-04-15 22:53 41.21876 132.28802 32220 ft 533 kts 180°
2026-04-15 22:53 41.14520 132.29392 32218 ft 533 kts 180°
2026-04-15 22:54 41.07124 132.29986 32221 ft 532 kts 180°
2026-04-15 22:54 40.99731 132.30578 32220 ft 532 kts 180°
2026-04-15 22:55 40.92347 132.31165 32222 ft 531 kts 180°
2026-04-15 22:55 40.84971 132.31753 32223 ft 531 kts 180°
2026-04-15 22:56 40.77636 132.32338 32219 ft 530 kts 180°
2026-04-15 22:56 40.70275 132.32929 32221 ft 529 kts 180°
2026-04-15 22:57 40.62921 132.33502 32219 ft 530 kts 180°
2026-04-15 22:57 40.55606 132.34078 32215 ft 530 kts 180°
2026-04-15 22:58 40.48247 132.34661 32206 ft 530 kts 180°
2026-04-15 22:58 40.40886 132.35238 32208 ft 530 kts 180°
2026-04-15 22:59 40.33515 132.35814 32217 ft 530 kts 180°
2026-04-15 22:59 40.26137 132.36388 32218 ft 531 kts 180°
2026-04-15 23:00 40.18808 132.36963 32219 ft 532 kts 180°
2026-04-15 23:00 40.11407 132.37534 32210 ft 533 kts 180°
2026-04-15 23:01 40.03997 132.38115 32201 ft 533 kts 180°
2026-04-15 23:01 39.96598 132.38694 32201 ft 532 kts 180°
2026-04-15 23:02 39.89227 132.39258 32202 ft 530 kts 180°
2026-04-15 23:02 39.81869 132.39827 32194 ft 529 kts 180°
2026-04-15 23:03 39.74531 132.40391 32192 ft 527 kts 180°
2026-04-15 23:03 39.67257 132.40953 32198 ft 528 kts 180°
2026-04-15 23:04 39.59926 132.41515 32193 ft 528 kts 180°
2026-04-15 23:04 39.52592 132.42079 32197 ft 528 kts 180°
2026-04-15 23:05 39.45243 132.42646 32196 ft 529 kts 180°
2026-04-15 23:05 39.37900 132.43196 32191 ft 528 kts 181°
2026-04-15 23:06 39.30565 132.43662 32195 ft 527 kts 181°
2026-04-15 23:06 39.23245 132.44062 32184 ft 527 kts 182°
2026-04-15 23:07 39.15918 132.44477 32184 ft 526 kts 182°
2026-04-15 23:07 39.08656 132.44896 32186 ft 526 kts 182°
2026-04-15 23:08 39.01363 132.45314 32184 ft 524 kts 182°
2026-04-15 23:08 38.94079 132.45727 32183 ft 523 kts 182°
2026-04-15 23:09 38.86799 132.46154 32186 ft 523 kts 182°
2026-04-15 23:09 38.79529 132.46575 32187 ft 523 kts 182°
2026-04-15 23:10 38.72269 132.46988 32186 ft 522 kts 182°
2026-04-15 23:10 38.65096 132.46688 32178 ft 507 kts 199°
2026-04-15 23:11 38.58672 132.43412 32191 ft 493 kts 219°
2026-04-15 23:11 38.53195 132.38314 32192 ft 492 kts 223°
2026-04-15 23:12 38.47653 132.33111 32189 ft 495 kts 223°
2026-04-15 23:12 38.42083 132.27987 32172 ft 490 kts 222°
2026-04-15 23:13 38.36557 132.22949 32183 ft 488 kts 223°
2026-04-15 23:13 38.31041 132.17922 32186 ft 488 kts 223°
2026-04-15 23:14 38.25519 132.12893 32183 ft 488 kts 223°
2026-04-15 23:14 38.19990 132.07868 32187 ft 489 kts 222°
2026-04-15 23:15 38.14488 132.02889 32186 ft 489 kts 223°
2026-04-15 23:15 38.08948 131.97860 32183 ft 489 kts 223°
2026-04-15 23:16 38.03398 131.92848 32176 ft 490 kts 223°
2026-04-15 23:16 37.97842 131.87837 32163 ft 491 kts 223°
2026-04-15 23:17 37.92282 131.82833 32178 ft 490 kts 223°
2026-04-15 23:17 37.86750 131.77859 32183 ft 490 kts 223°
2026-04-15 23:18 37.81183 131.72876 32190 ft 490 kts 223°
2026-04-15 23:18 37.75628 131.67902 32199 ft 489 kts 223°
2026-04-15 23:19 37.71016 131.63775 32194 ft 488 kts 223°
2026-04-15 23:19 37.65472 131.58833 32193 ft 487 kts 223°
2026-04-15 23:20 37.60133 131.53653 32191 ft 481 kts 227°
2026-04-15 23:20 37.54970 131.48311 32190 ft 480 kts 227°
2026-04-15 23:21 37.49805 131.42973 32196 ft 480 kts 227°
2026-04-15 23:21 37.44639 131.37670 32192 ft 479 kts 227°
2026-04-15 23:22 37.39507 131.32426 32190 ft 478 kts 227°
2026-04-15 23:22 37.34350 131.27168 32184 ft 477 kts 227°
2026-04-15 23:23 37.29192 131.21919 32185 ft 476 kts 227°
2026-04-15 23:23 37.24050 131.16695 32185 ft 475 kts 227°
2026-04-15 23:24 37.18918 131.11488 32183 ft 474 kts 228°
2026-04-15 23:24 37.13821 131.06324 32185 ft 473 kts 228°
2026-04-15 23:25 37.08706 131.01153 32192 ft 472 kts 228°
2026-04-15 23:25 37.03596 130.96001 32191 ft 472 kts 228°
2026-04-15 23:26 36.98490 130.90859 32198 ft 471 kts 228°
2026-04-15 23:26 36.93386 130.85727 32195 ft 470 kts 228°
2026-04-15 23:27 36.88292 130.80609 32194 ft 469 kts 228°
2026-04-15 23:27 36.83201 130.75506 32198 ft 469 kts 228°
2026-04-15 23:28 36.78154 130.70461 32194 ft 467 kts 228°
2026-04-15 23:28 36.73113 130.65364 32196 ft 465 kts 229°
2026-04-15 23:29 36.68194 130.60156 32190 ft 463 kts 230°
2026-04-15 23:29 36.63312 130.54952 32194 ft 461 kts 230°
2026-04-15 23:30 36.58411 130.49773 32195 ft 460 kts 230°
2026-04-15 23:30 36.53522 130.44637 32193 ft 459 kts 230°
2026-04-15 23:31 36.48685 130.39561 32193 ft 457 kts 230°
2026-04-15 23:31 36.43830 130.34473 32193 ft 456 kts 230°
2026-04-15 23:32 36.38980 130.29399 32191 ft 454 kts 230°
2026-04-15 23:32 36.34155 130.24356 32200 ft 453 kts 230°
2026-04-15 23:33 36.29334 130.19330 32197 ft 452 kts 230°
2026-04-15 23:33 36.24545 130.14355 32197 ft 451 kts 230°
2026-04-15 23:34 36.19738 130.09369 32197 ft 450 kts 230°
2026-04-15 23:36 36.02986 129.92042 32199 ft 448 kts 230°
2026-04-15 23:36 35.98193 129.87100 32200 ft 449 kts 230°
2026-04-15 23:37 35.93388 129.82159 32197 ft 449 kts 230°
2026-04-15 23:37 35.88579 129.77221 32213 ft 450 kts 230°
2026-04-15 23:38 35.83792 129.72317 32216 ft 450 kts 230°
2026-04-15 23:38 35.78966 129.67379 32226 ft 451 kts 230°
2026-04-15 23:39 35.74133 129.62441 32217 ft 451 kts 229°
2026-04-15 23:39 35.69296 129.57507 32193 ft 451 kts 229°
2026-04-15 23:40 35.64486 129.52608 32200 ft 452 kts 229°
2026-04-15 23:40 35.59644 129.47687 32218 ft 451 kts 229°
2026-04-15 23:41 35.54803 129.42771 32223 ft 452 kts 229°
2026-04-15 23:41 35.49981 129.37879 32221 ft 452 kts 229°
2026-04-15 23:42 35.45129 129.32971 32211 ft 452 kts 229°
2026-04-15 23:42 35.40276 129.28070 32199 ft 452 kts 228°
2026-04-15 23:43 35.35424 129.23185 32186 ft 451 kts 228°
2026-04-15 23:43 35.30581 129.18316 32198 ft 450 kts 228°
2026-04-15 23:44 35.25733 129.13449 32187 ft 450 kts 228°
2026-04-15 23:44 35.20882 129.08584 32197 ft 451 kts 228°
2026-04-15 23:45 35.16059 129.03753 32186 ft 451 kts 228°
2026-04-15 23:45 35.11360 128.98722 32189 ft 445 kts 234°
2026-04-15 23:46 35.07341 128.93045 32176 ft 442 kts 237°
2026-04-15 23:46 35.03326 128.87336 32187 ft 442 kts 236°
2026-04-15 23:47 34.99292 128.81660 32185 ft 443 kts 236°
2026-04-15 23:47 34.95275 128.76017 32184 ft 443 kts 236°
2026-04-15 23:48 34.91238 128.70344 32174 ft 443 kts 236°
2026-04-15 23:48 34.87206 128.64691 32184 ft 442 kts 236°
2026-04-15 23:49 34.83163 128.59032 32179 ft 443 kts 236°
2026-04-15 23:49 34.79135 128.53398 32167 ft 444 kts 236°
2026-04-15 23:50 34.75076 128.47736 32162 ft 444 kts 236°
2026-04-15 23:50 34.71007 128.42076 32162 ft 444 kts 236°
2026-04-15 23:51 34.64904 128.33603 32158 ft 444 kts 236°
2026-04-15 23:51 34.60833 128.27957 32158 ft 445 kts 236°
2026-04-15 23:52 34.56755 128.22307 32159 ft 444 kts 236°
2026-04-15 23:52 34.52697 128.16703 32153 ft 445 kts 235°
2026-04-15 23:53 34.48610 128.11064 32147 ft 445 kts 235°
2026-04-15 23:53 34.44516 128.05423 32146 ft 445 kts 235°
2026-04-15 23:54 34.40451 127.99831 32148 ft 445 kts 235°
2026-04-15 23:54 34.36358 127.94209 32147 ft 444 kts 235°
2026-04-15 23:55 34.32265 127.88596 32138 ft 444 kts 235°
2026-04-15 23:55 34.28179 127.83001 32133 ft 444 kts 235°
2026-04-15 23:56 34.24085 127.77406 32131 ft 444 kts 235°
2026-04-15 23:56 34.20004 127.71846 32132 ft 445 kts 235°
2026-04-15 23:57 34.15895 127.66258 32136 ft 445 kts 235°
2026-04-15 23:57 34.11786 127.60670 32124 ft 445 kts 235°
2026-04-15 23:58 34.07676 127.55090 32129 ft 445 kts 235°
2026-04-15 23:58 34.03555 127.49503 32122 ft 445 kts 234°
2026-04-15 23:59 33.99454 127.43955 32118 ft 446 kts 234°
2026-04-15 23:59 33.95327 127.38379 32118 ft 445 kts 234°
2026-04-16 00:00 33.91201 127.32817 32113 ft 445 kts 234°
2026-04-16 00:00 33.87076 127.27259 32102 ft 445 kts 234°
2026-04-16 00:01 33.82953 127.21712 32102 ft 444 kts 234°
2026-04-16 00:01 33.78831 127.16171 32122 ft 444 kts 234°
2026-04-16 00:02 33.74708 127.10638 32102 ft 444 kts 234°
2026-04-16 00:02 33.70582 127.05111 32102 ft 444 kts 234°
2026-04-16 00:03 33.66477 126.99627 32106 ft 444 kts 234°
2026-04-16 00:03 33.62345 126.94111 32102 ft 444 kts 234°
2026-04-16 00:04 33.58211 126.88605 32099 ft 444 kts 234°
2026-04-16 00:04 33.54068 126.83097 32103 ft 445 kts 234°
2026-04-16 00:05 33.49917 126.77587 32113 ft 445 kts 234°
2026-04-16 00:05 33.45764 126.72078 32117 ft 446 kts 234°
2026-04-16 00:06 33.41601 126.66564 32095 ft 446 kts 234°
2026-04-16 00:06 33.37359 126.61132 32100 ft 449 kts 229°
2026-04-16 00:07 33.32779 126.56113 32105 ft 450 kts 229°
2026-04-16 00:07 33.28154 126.51066 32095 ft 449 kts 229°
2026-04-16 00:08 33.23546 126.46014 32107 ft 449 kts 229°
2026-04-16 00:08 33.18978 126.41002 32098 ft 448 kts 229°
2026-04-16 00:09 33.14389 126.35976 32099 ft 447 kts 229°
2026-04-16 00:09 33.09799 126.30957 32103 ft 446 kts 229°
2026-04-16 00:10 33.05223 126.25960 32098 ft 446 kts 229°
2026-04-16 00:10 33.00221 126.21474 32112 ft 456 kts 218°
2026-04-16 00:11 32.94519 126.18067 32092 ft 468 kts 208°
2026-04-16 00:11 32.88383 126.15455 32098 ft 469 kts 207°
2026-04-16 00:12 32.82228 126.12889 32111 ft 469 kts 207°
2026-04-16 00:12 32.76087 126.10291 32101 ft 468 kts 207°
2026-04-16 00:13 32.69956 126.07663 32091 ft 468 kts 208°
2026-04-16 00:13 32.63829 126.05046 32096 ft 468 kts 208°
2026-04-16 00:14 32.57739 126.02450 32094 ft 468 kts 208°
2026-04-16 00:14 32.51605 125.99839 32094 ft 468 kts 208°
2026-04-16 00:15 32.45480 125.97240 32094 ft 467 kts 207°
2026-04-16 00:15 32.39353 125.94651 32088 ft 466 kts 207°
2026-04-16 00:16 32.33256 125.92064 32092 ft 466 kts 208°
2026-04-16 00:16 32.27186 125.89497 32081 ft 466 kts 208°
2026-04-16 00:17 32.21075 125.86926 32082 ft 465 kts 207°
2026-04-16 00:17 32.14974 125.84356 32086 ft 466 kts 208°
2026-04-16 00:18 32.09900 125.82215 32083 ft 466 kts 208°
2026-04-16 00:18 32.02792 125.79239 32083 ft 466 kts 208°
2026-04-16 00:19 31.96682 125.76666 32080 ft 466 kts 208°
2026-04-16 00:19 31.91560 125.74510 32085 ft 466 kts 208°
2026-04-16 00:20 31.85489 125.71963 32070 ft 465 kts 208°
2026-04-16 00:20 31.79386 125.69402 32069 ft 466 kts 208°
2026-04-16 00:21 31.73272 125.66843 32065 ft 466 kts 207°
2026-04-16 00:21 31.67157 125.64282 32062 ft 466 kts 208°
2026-04-16 00:22 31.61045 125.61727 32064 ft 466 kts 208°
2026-04-16 00:22 31.54931 125.59169 32066 ft 466 kts 208°
2026-04-16 00:23 31.48849 125.56630 32057 ft 468 kts 208°
2026-04-16 00:23 31.42724 125.54058 32055 ft 468 kts 208°
2026-04-16 00:24 31.36585 125.51492 32050 ft 468 kts 208°
2026-04-16 00:24 31.30465 125.48939 32051 ft 466 kts 208°
2026-04-16 00:25 31.24359 125.46395 32055 ft 466 kts 208°
2026-04-16 00:25 31.18254 125.43856 32047 ft 466 kts 208°
2026-04-16 00:26 31.12145 125.41316 32044 ft 466 kts 208°
2026-04-16 00:26 31.06081 125.38791 32046 ft 466 kts 208°
2026-04-16 00:27 30.99963 125.36247 32045 ft 466 kts 208°
2026-04-16 00:27 30.93837 125.33718 32047 ft 467 kts 208°
2026-04-16 00:28 30.87710 125.31186 32046 ft 467 kts 208°
2026-04-16 00:28 30.81616 125.28668 32044 ft 468 kts 208°
2026-04-16 00:29 30.75473 125.26133 32046 ft 468 kts 208°
2026-04-16 00:29 30.69338 125.23609 32045 ft 468 kts 208°
2026-04-16 00:30 30.63209 125.21086 32051 ft 467 kts 208°
2026-04-16 00:30 30.57076 125.18565 32038 ft 467 kts 208°
2026-04-16 00:31 30.50943 125.16047 32037 ft 467 kts 208°
2026-04-16 00:31 30.44846 125.13552 32036 ft 467 kts 208°
2026-04-16 00:32 30.38724 125.11047 32038 ft 467 kts 208°
2026-04-16 00:32 30.32591 125.08535 32036 ft 467 kts 208°
2026-04-16 00:33 30.26462 125.06035 32038 ft 467 kts 208°
2026-04-16 00:33 30.20323 125.03533 32037 ft 467 kts 208°
2026-04-16 00:34 30.14192 125.01037 32037 ft 467 kts 208°
2026-04-16 00:34 30.08061 124.98541 32036 ft 467 kts 208°
2026-04-16 00:35 30.01979 124.96070 32037 ft 466 kts 208°
2026-04-16 00:35 29.95882 124.93549 32037 ft 465 kts 208°
2026-04-16 00:36 29.89818 124.90944 32033 ft 465 kts 209°
2026-04-16 00:36 29.83763 124.88338 32027 ft 465 kts 208°
2026-04-16 00:37 29.77693 124.85744 32028 ft 465 kts 208°
2026-04-16 00:37 29.71616 124.83160 32027 ft 466 kts 208°
2026-04-16 00:38 29.65536 124.80579 32028 ft 466 kts 208°
2026-04-16 00:38 29.59490 124.78012 32028 ft 466 kts 208°
2026-04-16 00:39 29.53396 124.75430 32025 ft 466 kts 208°
2026-04-16 00:39 29.47315 124.72854 32018 ft 466 kts 208°
2026-04-16 00:40 29.41229 124.70281 32018 ft 466 kts 208°
2026-04-16 00:40 29.35152 124.67717 32018 ft 465 kts 208°
2026-04-16 00:41 29.29111 124.65168 32017 ft 465 kts 208°
2026-04-16 00:41 29.23021 124.62603 32018 ft 465 kts 208°
2026-04-16 00:42 29.16943 124.60047 32018 ft 466 kts 208°
2026-04-16 00:42 29.10888 124.57501 32017 ft 466 kts 208°
2026-04-16 00:43 29.04795 124.54943 32019 ft 466 kts 208°
2026-04-16 00:43 28.98700 124.52378 32019 ft 466 kts 210°
2026-04-16 00:44 28.92979 124.49113 32024 ft 456 kts 218°
2026-04-16 00:44 28.87806 124.45017 32022 ft 452 kts 222°
2026-04-16 00:45 28.82713 124.40884 32016 ft 452 kts 222°
2026-04-16 00:45 28.77557 124.36737 32022 ft 454 kts 222°
2026-04-16 00:46 28.72390 124.32594 32020 ft 455 kts 221°
2026-04-16 00:46 28.67208 124.28449 32012 ft 455 kts 221°
2026-04-16 00:47 28.62026 124.24306 32006 ft 455 kts 221°
2026-04-16 00:47 28.56872 124.20190 32011 ft 455 kts 221°
2026-04-16 00:48 28.51653 124.16027 32007 ft 455 kts 221°
2026-04-16 00:48 28.46495 124.11919 32001 ft 456 kts 221°
2026-04-16 00:50 28.25723 123.95327 31979 ft 456 kts 222°
2026-04-16 00:51 28.20580 123.91120 31983 ft 455 kts 222°
2026-04-16 00:51 28.15475 123.86961 31983 ft 456 kts 221°
2026-04-16 00:52 28.10312 123.82768 31983 ft 456 kts 221°
2026-04-16 00:52 28.05148 123.78580 31982 ft 457 kts 221°
2026-04-16 00:53 27.99980 123.74392 31978 ft 457 kts 221°
2026-04-16 00:53 27.94804 123.70203 31984 ft 457 kts 221°
2026-04-16 00:54 27.89675 123.66044 31983 ft 456 kts 221°
2026-04-16 00:54 27.84519 123.61847 31982 ft 456 kts 221°
2026-04-16 00:55 27.79363 123.57652 31982 ft 456 kts 221°
2026-04-16 00:55 27.74206 123.53466 31984 ft 456 kts 221°
2026-04-16 00:56 27.69082 123.49312 31981 ft 456 kts 221°
2026-04-16 00:56 27.63924 123.45135 31980 ft 456 kts 221°
2026-04-16 00:57 27.56193 123.38883 31985 ft 456 kts 221°
2026-04-16 00:58 27.51037 123.34720 31978 ft 456 kts 221°
2026-04-16 00:58 27.45884 123.30563 31983 ft 456 kts 221°
2026-04-16 00:59 27.40764 123.26439 31980 ft 456 kts 221°
2026-04-16 00:59 27.35607 123.22292 31983 ft 455 kts 221°
2026-04-16 01:00 27.30445 123.18146 31983 ft 456 kts 221°
2026-04-16 01:00 27.25282 123.13998 31979 ft 456 kts 221°
2026-04-16 01:01 27.20115 123.09853 31982 ft 456 kts 221°
2026-04-16 01:01 27.14945 123.05713 31981 ft 456 kts 221°
2026-04-16 01:02 27.09776 123.01578 31979 ft 456 kts 220°
2026-04-16 01:02 27.04636 122.97474 31978 ft 456 kts 220°
2026-04-16 01:03 26.99450 122.93352 31981 ft 457 kts 220°
2026-04-16 01:03 26.94259 122.89228 31973 ft 457 kts 220°
2026-04-16 01:04 26.89058 122.85098 31977 ft 458 kts 220°
2026-04-16 01:04 26.83893 122.81002 31965 ft 458 kts 220°
2026-04-16 01:05 26.78699 122.76883 31971 ft 457 kts 220°
2026-04-16 01:05 26.73498 122.72771 31971 ft 457 kts 220°
2026-04-16 01:06 26.68301 122.68660 31972 ft 457 kts 220°
2026-04-16 01:06 26.63132 122.64581 31971 ft 458 kts 220°
2026-04-16 01:07 26.57919 122.60469 31966 ft 458 kts 220°
2026-04-16 01:07 26.52710 122.56363 31964 ft 458 kts 220°
2026-04-16 01:08 26.47493 122.52257 31963 ft 459 kts 219°
2026-04-16 01:08 26.42278 122.48156 31962 ft 459 kts 219°
2026-04-16 01:09 26.37096 122.44085 31965 ft 459 kts 219°
2026-04-16 01:09 26.31876 122.39986 31960 ft 459 kts 219°
2026-04-16 01:10 26.26653 122.35892 31970 ft 459 kts 219°
2026-04-16 01:10 26.21432 122.31806 31974 ft 459 kts 219°
2026-04-16 01:11 26.16209 122.27719 31974 ft 459 kts 219°
2026-04-16 01:11 26.10976 122.23652 31968 ft 458 kts 219°
2026-04-16 01:12 26.05747 122.19656 31971 ft 459 kts 218°
2026-04-16 01:12 26.00480 122.15636 31974 ft 459 kts 218°
2026-04-16 01:13 25.95215 122.11614 31973 ft 459 kts 218°
2026-04-16 01:13 25.89947 122.07590 31972 ft 459 kts 218°
2026-04-16 01:14 25.84686 122.03574 31972 ft 459 kts 218°
2026-04-16 01:14 25.79413 121.99555 31972 ft 459 kts 218°
2026-04-16 01:15 25.74178 121.95570 31969 ft 459 kts 218°
2026-04-16 01:15 25.68920 121.91543 31972 ft 459 kts 219°
2026-04-16 01:16 25.63673 121.87494 31973 ft 459 kts 219°
2026-04-16 01:16 25.58419 121.83449 31973 ft 460 kts 219°
2026-04-16 01:17 25.54048 121.80090 31969 ft 460 kts 219°
2026-04-16 01:17 25.48788 121.76045 31974 ft 460 kts 219°
2026-04-16 01:18 25.43523 121.72001 31973 ft 461 kts 218°
2026-04-16 01:18 25.38253 121.67959 31971 ft 461 kts 218°
2026-04-16 01:19 25.32972 121.63917 31973 ft 461 kts 218°
2026-04-16 01:19 25.27734 121.59904 31971 ft 461 kts 218°
2026-04-16 01:20 25.22445 121.55862 31967 ft 462 kts 218°
2026-04-16 01:20 25.17343 121.51583 31954 ft 459 kts 225°
2026-04-16 01:21 25.12922 121.46533 31962 ft 457 kts 231°
2026-04-16 01:21 25.08656 121.41300 31971 ft 458 kts 230°
2026-04-16 01:22 25.04374 121.36077 31965 ft 459 kts 230°
2026-04-16 01:22 25.00099 121.30893 31968 ft 460 kts 230°
2026-04-16 01:23 24.95775 121.25664 31960 ft 461 kts 230°
2026-04-16 01:23 24.91452 121.20443 31965 ft 461 kts 230°
2026-04-16 01:24 24.87132 121.15228 31966 ft 461 kts 230°
2026-04-16 01:24 24.82807 121.10015 31972 ft 461 kts 230°
2026-04-16 01:25 24.78506 121.04831 31972 ft 461 kts 230°
2026-04-16 01:25 24.74175 120.99619 31974 ft 461 kts 230°
2026-04-16 01:26 24.69852 120.94420 31975 ft 461 kts 230°
2026-04-16 01:26 24.65525 120.89224 31964 ft 460 kts 230°
2026-04-16 01:27 24.61193 120.84038 31970 ft 460 kts 230°
2026-04-16 01:27 24.56887 120.78879 31968 ft 460 kts 230°
2026-04-16 01:28 24.52557 120.73696 31974 ft 460 kts 230°
2026-04-16 01:28 24.48224 120.68512 31970 ft 460 kts 230°
2026-04-16 01:29 24.43885 120.63333 31973 ft 461 kts 230°
2026-04-16 01:29 24.39534 120.58142 31963 ft 462 kts 230°
2026-04-16 01:30 24.35171 120.52948 31964 ft 463 kts 230°
2026-04-16 01:30 24.30829 120.47782 31963 ft 464 kts 230°
2026-04-16 01:31 24.26460 120.42583 31962 ft 464 kts 230°
2026-04-16 01:31 24.22087 120.37389 31963 ft 464 kts 230°
2026-04-16 01:32 24.17699 120.32191 31972 ft 464 kts 230°
2026-04-16 01:32 24.13339 120.27025 31968 ft 464 kts 230°
2026-04-16 01:33 24.08949 120.21826 31961 ft 465 kts 229°
2026-04-16 01:33 24.04542 120.16616 31964 ft 465 kts 229°
2026-04-16 01:34 24.00146 120.11419 31972 ft 465 kts 229°
2026-04-16 01:34 23.95744 120.06230 31973 ft 465 kts 229°
2026-04-16 01:35 23.91364 120.01070 31973 ft 465 kts 229°
2026-04-16 01:35 23.86961 119.95888 31970 ft 465 kts 229°
2026-04-16 01:36 23.82559 119.90711 31972 ft 465 kts 229°
2026-04-16 01:36 23.78156 119.85538 31973 ft 465 kts 229°
2026-04-16 01:37 23.73748 119.80364 31965 ft 465 kts 229°
2026-04-16 01:37 23.69342 119.75197 31963 ft 465 kts 229°
2026-04-16 01:38 23.64955 119.70059 31963 ft 465 kts 229°
2026-04-16 01:38 23.60538 119.64898 31964 ft 466 kts 228°
2026-04-16 01:39 23.55705 119.60178 31967 ft 468 kts 222°
2026-04-16 01:39 23.50656 119.55688 31963 ft 468 kts 222°
2026-04-16 01:40 23.45609 119.51191 31965 ft 469 kts 222°
2026-04-16 01:40 23.40575 119.46678 31960 ft 469 kts 222°
2026-04-16 01:41 23.35532 119.42157 31965 ft 469 kts 222°
2026-04-16 01:41 23.30525 119.37668 31968 ft 470 kts 222°
2026-04-16 01:42 23.25475 119.33143 31973 ft 470 kts 222°
2026-04-16 01:42 23.20424 119.28625 31972 ft 471 kts 222°
2026-04-16 01:43 23.15363 119.24105 31971 ft 471 kts 222°
2026-04-16 01:43 23.10305 119.19592 31972 ft 471 kts 222°
2026-04-16 01:44 23.05234 119.15068 31975 ft 471 kts 222°
2026-04-16 01:44 23.00159 119.10548 31971 ft 472 kts 222°
2026-04-16 01:45 22.95114 119.06057 31970 ft 472 kts 221°
2026-04-16 01:45 22.90026 119.01535 31972 ft 472 kts 221°
2026-04-16 01:46 22.84940 118.97018 31965 ft 473 kts 221°
2026-04-16 01:46 22.79843 118.92497 31963 ft 473 kts 221°
2026-04-16 01:47 22.74751 118.87983 31962 ft 473 kts 221°
2026-04-16 01:47 22.69689 118.83500 31964 ft 473 kts 221°
2026-04-16 01:48 22.64596 118.78994 31961 ft 473 kts 221°
2026-04-16 01:48 22.59504 118.74493 31964 ft 473 kts 221°
2026-04-16 01:49 22.54397 118.69984 31964 ft 474 kts 221°
2026-04-16 01:49 22.49287 118.65478 31973 ft 474 kts 221°
2026-04-16 01:50 22.44173 118.60974 31971 ft 474 kts 221°
2026-04-16 01:50 22.39052 118.56462 31977 ft 475 kts 221°
2026-04-16 01:51 22.33957 118.51981 31973 ft 476 kts 221°
2026-04-16 01:51 22.28819 118.47470 31969 ft 475 kts 221°
2026-04-16 01:52 22.23685 118.42964 31973 ft 476 kts 221°
2026-04-16 01:52 22.18545 118.38456 31972 ft 476 kts 221°
2026-04-16 01:53 22.13435 118.33979 31974 ft 476 kts 221°
2026-04-16 01:53 22.08297 118.29483 31971 ft 476 kts 221°
2026-04-16 01:54 22.03155 118.24988 31973 ft 476 kts 221°
2026-04-16 01:54 21.98007 118.20493 31973 ft 476 kts 221°
2026-04-16 01:55 21.92857 118.15997 31973 ft 476 kts 221°
2026-04-16 01:55 21.87705 118.11505 31972 ft 476 kts 221°
2026-04-16 01:56 21.82582 118.07043 31973 ft 476 kts 221°
2026-04-16 01:56 21.77428 118.02558 31969 ft 476 kts 221°
2026-04-16 01:57 21.72270 117.98075 31972 ft 476 kts 220°
2026-04-16 01:57 21.67110 117.93593 31968 ft 476 kts 220°
2026-04-16 01:58 21.61950 117.89116 31969 ft 476 kts 220°
2026-04-16 01:58 21.56828 117.84675 31974 ft 476 kts 220°
2026-04-16 01:59 21.51666 117.80206 31971 ft 476 kts 220°
2026-04-16 01:59 21.46499 117.75737 31971 ft 477 kts 220°
2026-04-16 02:00 21.41328 117.71266 31963 ft 477 kts 220°
2026-04-16 02:00 21.36153 117.66796 31962 ft 477 kts 220°
2026-04-16 02:01 21.30977 117.62328 31963 ft 477 kts 220°
2026-04-16 02:01 21.25827 117.57888 31961 ft 477 kts 220°
2026-04-16 02:02 21.20663 117.53421 31960 ft 477 kts 223°
2026-04-16 02:02 21.16328 117.48105 31966 ft 474 kts 236°
2026-04-16 02:03 21.13185 117.41920 31974 ft 473 kts 246°
2026-04-16 02:03 21.10559 117.35451 31964 ft 474 kts 247°
2026-04-16 02:04 21.06600 117.25724 31959 ft 474 kts 246°
2026-04-16 02:04 21.03945 117.19308 31964 ft 475 kts 246°
2026-04-16 02:05 21.01257 117.12850 31963 ft 475 kts 246°
2026-04-16 02:05 20.98566 117.06393 31961 ft 475 kts 246°
2026-04-16 02:06 20.95874 116.99938 31965 ft 475 kts 246°
2026-04-16 02:06 20.93180 116.93483 31972 ft 474 kts 246°
2026-04-16 02:07 20.90486 116.87042 31973 ft 474 kts 246°
2026-04-16 02:07 20.87788 116.80598 31973 ft 475 kts 246°
2026-04-16 02:08 20.85090 116.74157 31972 ft 475 kts 246°
2026-04-16 02:08 20.82405 116.67757 31972 ft 475 kts 246°
2026-04-16 02:09 20.79700 116.61316 31974 ft 475 kts 246°
2026-04-16 02:09 20.76990 116.54872 31973 ft 475 kts 246°
2026-04-16 02:10 20.74279 116.48437 31972 ft 475 kts 246°
2026-04-16 02:10 20.71567 116.42002 31976 ft 475 kts 246°
2026-04-16 02:11 20.68848 116.35565 31972 ft 475 kts 246°
2026-04-16 02:11 20.66150 116.29183 31974 ft 475 kts 246°
2026-04-16 02:12 20.63432 116.22757 31974 ft 475 kts 246°
2026-04-16 02:12 20.60706 116.16324 31982 ft 475 kts 246°
2026-04-16 02:13 20.57974 116.09888 31982 ft 476 kts 246°
2026-04-16 02:13 20.55240 116.03451 31981 ft 477 kts 246°
2026-04-16 02:14 20.52961 115.98095 31983 ft 477 kts 246°
2026-04-16 02:14 20.50221 115.91649 31978 ft 477 kts 246°
2026-04-16 02:15 20.47476 115.85215 31981 ft 477 kts 245°
2026-04-16 02:15 20.44741 115.78811 31980 ft 477 kts 245°
2026-04-16 02:16 20.41995 115.72385 31984 ft 476 kts 245°
2026-04-16 02:16 20.39245 115.65955 31980 ft 476 kts 245°
2026-04-16 02:17 20.36494 115.59533 31987 ft 476 kts 245°
2026-04-16 02:17 20.33738 115.53110 31980 ft 476 kts 245°
2026-04-16 02:18 20.31005 115.46740 31980 ft 475 kts 245°
2026-04-16 02:18 20.28254 115.40340 31977 ft 475 kts 245°
2026-04-16 02:19 20.25497 115.33936 31983 ft 475 kts 245°
2026-04-16 02:19 20.22742 115.27544 31981 ft 475 kts 245°
2026-04-16 02:20 20.19982 115.21147 31979 ft 475 kts 245°
2026-04-16 02:20 20.17241 115.14803 31973 ft 475 kts 245°
2026-04-16 02:21 20.14478 115.08416 31969 ft 475 kts 245°
2026-04-16 02:21 20.11718 115.02032 31976 ft 475 kts 245°
2026-04-16 02:22 20.08958 114.95660 31970 ft 474 kts 245°
2026-04-16 02:22 20.06189 114.89292 31975 ft 474 kts 245°
2026-04-16 02:23 20.03423 114.82927 31972 ft 474 kts 245°
2026-04-16 02:23 20.00659 114.76565 31966 ft 473 kts 245°
2026-04-16 02:24 19.97911 114.70256 31959 ft 474 kts 245°
2026-04-16 02:24 19.95132 114.63890 31969 ft 475 kts 245°
2026-04-16 02:25 19.92350 114.57516 31973 ft 476 kts 245°
2026-04-16 02:25 19.89561 114.51136 31973 ft 476 kts 245°
2026-04-16 02:26 19.86768 114.44749 31970 ft 476 kts 245°
2026-04-16 02:26 19.83977 114.38374 31971 ft 476 kts 245°
2026-04-16 02:27 19.81201 114.32043 31970 ft 476 kts 245°
2026-04-16 02:27 19.78405 114.25679 31971 ft 475 kts 245°
2026-04-16 02:28 19.75606 114.19316 31973 ft 475 kts 245°
2026-04-16 02:28 19.72813 114.12968 31973 ft 474 kts 245°
2026-04-16 02:29 19.70036 114.06660 31971 ft 474 kts 245°
2026-04-16 02:29 19.67236 114.00320 31965 ft 474 kts 245°
2026-04-16 02:30 19.64440 113.93993 31963 ft 474 kts 245°
2026-04-16 02:30 19.61642 113.87664 31965 ft 474 kts 245°
2026-04-16 02:31 19.58847 113.81344 31972 ft 474 kts 245°
2026-04-16 02:31 19.56055 113.75045 31976 ft 475 kts 245°
2026-04-16 02:32 19.53237 113.68692 31973 ft 475 kts 245°
2026-04-16 02:32 19.50418 113.62347 31973 ft 476 kts 245°
2026-04-16 02:33 19.47598 113.56004 31973 ft 476 kts 245°
2026-04-16 02:33 19.44775 113.49658 31954 ft 476 kts 245°
2026-04-16 02:34 19.41963 113.43352 31929 ft 475 kts 245°
2026-04-16 02:34 19.39143 113.37029 31946 ft 474 kts 245°
2026-04-16 02:35 19.36319 113.30709 31951 ft 474 kts 245°
2026-04-16 02:35 19.33501 113.24403 31950 ft 474 kts 245°
2026-04-16 02:36 19.30691 113.18127 31946 ft 474 kts 245°
2026-04-16 02:36 19.27862 113.11814 31949 ft 474 kts 245°
2026-04-16 02:37 19.25033 113.05505 31950 ft 474 kts 245°
2026-04-16 02:37 19.22196 112.99191 31946 ft 475 kts 245°
2026-04-16 02:38 19.19361 112.92883 31947 ft 475 kts 245°
2026-04-16 02:38 19.16535 112.86607 31949 ft 475 kts 244°
2026-04-16 02:39 19.13694 112.80307 31950 ft 474 kts 245°
2026-04-16 02:39 19.10855 112.74008 31931 ft 474 kts 244°
2026-04-16 02:40 19.08016 112.67719 31949 ft 474 kts 244°
2026-04-16 02:40 19.05169 112.61422 31951 ft 475 kts 244°
2026-04-16 02:41 19.02310 112.55125 31934 ft 474 kts 243°
2026-04-16 02:41 18.98510 112.49510 31953 ft 475 kts 228°
2026-04-16 02:42 18.93508 112.44935 31958 ft 478 kts 217°
2026-04-16 02:42 18.88043 112.40916 31947 ft 479 kts 216°
2026-04-16 02:43 18.82582 112.36865 31947 ft 480 kts 217°
2026-04-16 02:43 18.77137 112.32763 31946 ft 480 kts 217°
2026-04-16 02:44 18.71705 112.28668 31946 ft 480 kts 217°
2026-04-16 02:44 18.66671 112.24151 31950 ft 478 kts 227°
2026-04-16 02:45 18.62440 112.18771 31928 ft 477 kts 236°
2026-04-16 02:45 18.58778 112.12945 31946 ft 477 kts 237°
2026-04-16 02:46 18.55132 112.07092 31947 ft 477 kts 237°
2026-04-16 02:46 18.51488 112.01293 31949 ft 478 kts 237°
2026-04-16 02:47 18.47799 111.95461 31947 ft 478 kts 237°
2026-04-16 02:47 18.44105 111.89637 31948 ft 478 kts 237°
2026-04-16 02:48 18.40406 111.83815 31929 ft 478 kts 237°
2026-04-16 02:48 18.36734 111.78036 31948 ft 477 kts 237°
2026-04-16 02:49 18.33040 111.72230 31949 ft 477 kts 237°
2026-04-16 02:49 18.29351 111.66429 31931 ft 477 kts 237°
2026-04-16 02:50 18.25656 111.60622 31924 ft 477 kts 237°
2026-04-16 02:50 18.21955 111.54826 31924 ft 477 kts 237°
2026-04-16 02:51 18.18279 111.49066 31926 ft 477 kts 237°
2026-04-16 02:51 18.14584 111.43278 31925 ft 477 kts 237°
2026-04-16 02:52 18.10888 111.37495 31960 ft 476 kts 237°
2026-04-16 02:52 18.07188 111.31713 31963 ft 476 kts 237°
2026-04-16 02:53 18.03515 111.25976 31964 ft 476 kts 237°
2026-04-16 02:53 17.99811 111.20195 31963 ft 476 kts 237°
2026-04-16 02:54 17.96107 111.14428 31957 ft 477 kts 236°
2026-04-16 02:54 17.92396 111.08647 31965 ft 478 kts 236°
2026-04-16 02:55 17.88672 111.02852 31964 ft 479 kts 236°
2026-04-16 02:55 17.84939 110.97046 31963 ft 480 kts 236°
2026-04-16 02:56 17.81221 110.91273 31963 ft 480 kts 236°
2026-04-16 02:56 17.77475 110.85456 31962 ft 480 kts 236°
2026-04-16 02:57 17.73723 110.79641 31964 ft 480 kts 236°
2026-04-16 02:57 17.69985 110.73850 31963 ft 479 kts 236°
2026-04-16 02:58 17.66247 110.68062 31964 ft 479 kts 236°
2026-04-16 02:58 17.62529 110.62313 31964 ft 479 kts 236°
2026-04-16 02:59 17.58787 110.56529 31962 ft 478 kts 236°
2026-04-16 02:59 17.55051 110.50759 31963 ft 478 kts 236°
2026-04-16 03:00 17.51311 110.44993 31962 ft 478 kts 236°
2026-04-16 03:00 17.47571 110.39223 31956 ft 479 kts 236°
2026-04-16 03:01 17.43849 110.33489 31954 ft 479 kts 236°
2026-04-16 03:01 17.40104 110.27715 31953 ft 479 kts 236°
2026-04-16 03:02 17.36390 110.21913 31955 ft 479 kts 237°
2026-04-16 03:02 17.32689 110.16120 31953 ft 478 kts 236°
2026-04-16 03:03 17.29006 110.10369 31954 ft 478 kts 236°
2026-04-16 03:03 17.25297 110.04582 31953 ft 479 kts 236°
2026-04-16 03:04 17.21577 109.98790 31948 ft 479 kts 236°
2026-04-16 03:04 17.17856 109.92997 31945 ft 480 kts 236°
2026-04-16 03:05 17.14151 109.87239 31947 ft 480 kts 236°
2026-04-16 03:05 17.10416 109.81438 31947 ft 481 kts 236°
2026-04-16 03:06 17.06673 109.75630 31950 ft 481 kts 236°
2026-04-16 03:07 17.01059 109.66923 31948 ft 482 kts 236°
2026-04-16 03:07 16.97308 109.61111 31950 ft 482 kts 236°
2026-04-16 03:08 16.93557 109.55303 31929 ft 482 kts 236°
2026-04-16 03:08 16.89797 109.49492 31943 ft 482 kts 236°
2026-04-16 03:09 16.86067 109.43726 31935 ft 483 kts 236°
2026-04-16 03:09 16.82306 109.37912 31930 ft 483 kts 236°
2026-04-16 03:10 16.78541 109.32098 31942 ft 483 kts 236°
2026-04-16 03:10 16.74782 109.26289 31931 ft 483 kts 236°
2026-04-16 03:11 16.71012 109.20477 31942 ft 483 kts 236°
2026-04-16 03:11 16.67242 109.14666 31937 ft 483 kts 236°
2026-04-16 03:12 16.63500 109.08897 31929 ft 483 kts 236°
2026-04-16 03:12 16.59732 109.03093 31929 ft 483 kts 236°
2026-04-16 03:13 16.55963 108.97294 31930 ft 482 kts 236°
2026-04-16 03:13 16.52796 108.92504 31929 ft 482 kts 236°
2026-04-16 03:14 16.48966 108.86775 31926 ft 481 kts 236°
2026-04-16 03:14 16.45146 108.81058 31919 ft 481 kts 236°
2026-04-16 03:15 16.41324 108.75326 31915 ft 481 kts 236°
2026-04-16 03:15 16.37502 108.69597 31917 ft 481 kts 236°
2026-04-16 03:16 16.33721 108.63899 31911 ft 481 kts 236°
2026-04-16 03:16 16.29987 108.58101 31908 ft 482 kts 237°
2026-04-16 03:17 16.26268 108.52302 31906 ft 481 kts 237°
2026-04-16 03:17 16.22541 108.46509 31904 ft 481 kts 237°
2026-04-16 03:18 16.18809 108.40731 31907 ft 481 kts 237°
2026-04-16 03:18 16.15074 108.34956 31904 ft 481 kts 237°
2026-04-16 03:19 16.11371 108.29232 31903 ft 480 kts 237°
2026-04-16 03:19 16.07662 108.23469 31906 ft 480 kts 239°
2026-04-16 03:20 16.04670 108.17264 31914 ft 479 kts 248°
2026-04-16 03:20 16.02631 108.10671 31921 ft 479 kts 254°
2026-04-16 03:21 16.00838 108.04040 31918 ft 480 kts 254°
2026-04-16 03:21 15.98991 107.97364 31916 ft 480 kts 253°
2026-04-16 03:22 15.97116 107.90694 31905 ft 481 kts 253°
2026-04-16 03:22 15.95261 107.84010 31907 ft 481 kts 254°
2026-04-16 03:23 15.93460 107.77363 31903 ft 480 kts 254°
2026-04-16 03:23 15.91644 107.70687 31899 ft 480 kts 254°
2026-04-16 03:24 15.89814 107.64019 31897 ft 480 kts 253°
2026-04-16 03:24 15.87913 107.57370 31891 ft 480 kts 253°
2026-04-16 03:25 15.85988 107.50714 31888 ft 480 kts 253°
2026-04-16 03:25 15.84073 107.44062 31888 ft 481 kts 253°
2026-04-16 03:26 15.82169 107.37440 31876 ft 482 kts 253°
2026-04-16 03:26 15.80251 107.30769 31892 ft 482 kts 253°
2026-04-16 03:27 15.78323 107.24092 31901 ft 481 kts 252°
2026-04-16 03:27 15.75322 107.17913 31906 ft 482 kts 235°
2026-04-16 03:28 15.70769 107.12802 31896 ft 484 kts 222°
2026-04-16 03:28 15.65667 107.08301 31901 ft 485 kts 221°
2026-04-16 03:29 15.60526 107.03762 31908 ft 485 kts 222°
2026-04-16 03:29 15.55406 106.99173 31907 ft 486 kts 222°
2026-04-16 03:30 15.50291 106.94566 31905 ft 487 kts 222°
2026-04-16 03:30 15.45215 106.89993 31905 ft 486 kts 222°
2026-04-16 03:31 15.40108 106.85397 31920 ft 486 kts 222°
2026-04-16 03:31 15.34996 106.80802 31915 ft 486 kts 222°
2026-04-16 03:32 15.29886 106.76214 31914 ft 486 kts 222°
2026-04-16 03:34 15.09494 106.57931 31932 ft 486 kts 222°
2026-04-16 03:34 15.04382 106.53352 31932 ft 486 kts 222°
2026-04-16 03:35 14.99263 106.48771 31939 ft 487 kts 222°
2026-04-16 03:35 14.94133 106.44184 31936 ft 487 kts 221°
2026-04-16 03:36 14.89004 106.39601 31928 ft 488 kts 222°
2026-04-16 03:36 14.83901 106.35052 31931 ft 488 kts 221°
2026-04-16 03:37 14.78744 106.30468 31947 ft 489 kts 221°
2026-04-16 03:37 14.73584 106.25888 31932 ft 490 kts 221°
2026-04-16 03:38 14.68413 106.21293 31926 ft 490 kts 221°
2026-04-16 03:38 14.63275 106.16731 31947 ft 490 kts 221°
2026-04-16 03:39 14.58104 106.12143 31936 ft 490 kts 221°
2026-04-16 03:39 14.52929 106.07556 31938 ft 490 kts 221°
2026-04-16 03:40 14.47750 106.02962 31927 ft 490 kts 221°
2026-04-16 03:40 14.42563 105.98371 31929 ft 491 kts 221°
2026-04-16 03:41 14.37407 105.93811 31941 ft 491 kts 221°
2026-04-16 03:41 14.32211 105.89217 31928 ft 492 kts 221°
2026-04-16 03:42 14.27015 105.84627 31938 ft 492 kts 221°
2026-04-16 03:42 14.21810 105.80027 31946 ft 493 kts 221°
2026-04-16 03:43 14.16636 105.75459 31929 ft 493 kts 221°
2026-04-16 03:43 14.11424 105.70860 31934 ft 492 kts 221°
2026-04-16 03:44 14.06205 105.66278 31931 ft 492 kts 221°
2026-04-16 03:44 14.01006 105.61752 31945 ft 492 kts 221°
2026-04-16 03:45 13.95772 105.57196 31928 ft 492 kts 221°
2026-04-16 03:45 13.90543 105.52638 31925 ft 493 kts 221°
2026-04-16 03:46 13.85303 105.48073 31947 ft 493 kts 221°
2026-04-16 03:46 13.80107 105.43530 31931 ft 493 kts 223°
2026-04-16 03:47 13.75332 105.38481 31927 ft 492 kts 228°
2026-04-16 03:47 13.70704 105.33271 31928 ft 492 kts 228°
2026-04-16 03:48 13.66067 105.28078 31929 ft 493 kts 228°
2026-04-16 03:48 13.61434 105.22931 31934 ft 493 kts 228°
2026-04-16 03:49 13.56768 105.17763 31931 ft 493 kts 228°
2026-04-16 03:49 13.52097 105.12593 31926 ft 494 kts 228°
2026-04-16 03:50 13.47423 105.07423 31925 ft 493 kts 228°
2026-04-16 03:50 13.42749 105.02251 31940 ft 494 kts 228°
2026-04-16 03:51 13.38067 104.97074 31940 ft 495 kts 228°
2026-04-16 03:51 13.33415 104.91931 31927 ft 494 kts 228°
2026-04-16 03:52 13.28730 104.86758 31928 ft 494 kts 228°
2026-04-16 03:52 13.24051 104.81588 31931 ft 494 kts 228°
2026-04-16 03:53 13.19367 104.76432 31947 ft 494 kts 228°
2026-04-16 03:53 13.14685 104.71271 31929 ft 494 kts 228°
2026-04-16 03:54 13.09997 104.66106 31925 ft 494 kts 228°
2026-04-16 03:54 13.05344 104.60978 31932 ft 494 kts 228°
2026-04-16 03:55 13.00660 104.55824 31930 ft 494 kts 227°
2026-04-16 03:55 12.95967 104.50667 31940 ft 495 kts 227°
2026-04-16 03:56 12.91272 104.45508 31929 ft 495 kts 227°
2026-04-16 03:56 12.86564 104.40333 31937 ft 495 kts 227°
2026-04-16 03:57 12.81856 104.35170 31932 ft 495 kts 228°
2026-04-16 03:57 12.77179 104.30040 31938 ft 495 kts 227°
2026-04-16 03:58 12.72474 104.24880 31935 ft 496 kts 227°
2026-04-16 03:58 12.67767 104.19722 31930 ft 496 kts 228°
2026-04-16 03:59 12.63052 104.14558 31942 ft 496 kts 227°
2026-04-16 03:59 12.58338 104.09398 31946 ft 496 kts 227°
2026-04-16 04:00 12.53615 104.04231 31946 ft 497 kts 227°
2026-04-16 04:00 12.48924 103.99100 31931 ft 497 kts 227°
2026-04-16 04:01 12.44191 103.93928 31923 ft 497 kts 227°
2026-04-16 04:01 12.39461 103.88765 31937 ft 497 kts 227°
2026-04-16 04:02 12.34760 103.83634 31930 ft 497 kts 227°
2026-04-16 04:02 12.30028 103.78470 31928 ft 497 kts 227°
2026-04-16 04:03 12.25300 103.73314 31925 ft 497 kts 227°
2026-04-16 04:03 12.20604 103.68111 31916 ft 497 kts 229°
2026-04-16 04:04 12.16032 103.62812 31929 ft 497 kts 230°
2026-04-16 04:04 12.11509 103.57539 31931 ft 497 kts 229°
2026-04-16 04:05 12.06935 103.52245 31929 ft 496 kts 229°
2026-04-16 04:05 12.02358 103.46967 31918 ft 496 kts 229°
2026-04-16 04:06 11.97775 103.41692 31932 ft 496 kts 229°
2026-04-16 04:06 11.93193 103.36422 31923 ft 496 kts 229°
2026-04-16 04:07 11.88617 103.31154 31923 ft 496 kts 229°
2026-04-16 04:07 11.81767 103.23275 31924 ft 496 kts 229°
2026-04-16 04:08 11.77185 103.18008 31924 ft 496 kts 229°
2026-04-16 04:08 11.72606 103.12747 31949 ft 494 kts 229°
2026-04-16 04:09 11.68069 103.07533 31933 ft 495 kts 229°
2026-04-16 04:09 11.63492 103.02288 31919 ft 495 kts 229°
2026-04-16 04:10 11.59109 102.96866 31915 ft 495 kts 233°
2026-04-16 04:10 11.54976 102.91233 31912 ft 495 kts 234°
2026-04-16 04:11 11.50863 102.85609 31912 ft 494 kts 234°
2026-04-16 04:11 11.46766 102.80035 31914 ft 494 kts 233°
2026-04-16 04:12 11.42632 102.74438 31920 ft 493 kts 233°
2026-04-16 04:12 11.38497 102.68850 31917 ft 493 kts 233°
2026-04-16 04:13 11.35068 102.64207 31916 ft 493 kts 233°
2026-04-16 04:13 11.30939 102.58626 31921 ft 493 kts 233°
2026-04-16 04:14 11.26807 102.53046 31916 ft 493 kts 233°
2026-04-16 04:14 11.22681 102.47470 31917 ft 493 kts 233°
2026-04-16 04:15 11.18571 102.41923 31914 ft 493 kts 233°
2026-04-16 04:15 11.14435 102.36349 31920 ft 494 kts 233°
2026-04-16 04:16 11.10297 102.30768 31914 ft 494 kts 233°
2026-04-16 04:16 11.06157 102.25192 31913 ft 493 kts 233°
2026-04-16 04:17 11.02006 102.19630 31922 ft 493 kts 233°
2026-04-16 04:17 10.97838 102.14077 31910 ft 493 kts 233°
2026-04-16 04:18 10.93670 102.08523 31916 ft 494 kts 233°
2026-04-16 04:18 10.89502 102.02966 31915 ft 494 kts 233°
2026-04-16 04:19 10.85359 101.97443 31919 ft 493 kts 233°
2026-04-16 04:19 10.81195 101.91892 31913 ft 493 kts 233°
2026-04-16 04:20 10.77030 101.86346 31923 ft 493 kts 233°
2026-04-16 04:20 10.72861 101.80806 31917 ft 493 kts 233°
2026-04-16 04:21 10.68728 101.75302 31918 ft 493 kts 233°
2026-04-16 04:21 10.64564 101.69763 31916 ft 493 kts 233°
2026-04-16 04:22 10.60396 101.64224 31916 ft 493 kts 233°
2026-04-16 04:22 10.56227 101.58684 31917 ft 493 kts 233°
2026-04-16 04:23 10.52057 101.53146 31917 ft 493 kts 233°
2026-04-16 04:23 10.47915 101.47648 31925 ft 493 kts 233°
2026-04-16 04:24 10.43738 101.42103 31906 ft 493 kts 233°
2026-04-16 04:24 10.39568 101.36574 31907 ft 493 kts 233°
2026-04-16 04:25 10.35387 101.31032 31909 ft 493 kts 233°
2026-04-16 04:25 10.31241 101.25545 31905 ft 493 kts 233°
2026-04-16 04:26 10.27064 101.20018 31909 ft 493 kts 233°
2026-04-16 04:26 10.22891 101.14494 31905 ft 493 kts 233°
2026-04-16 04:27 10.18676 101.09020 31907 ft 492 kts 231°
2026-04-16 04:27 10.14308 101.03648 31909 ft 493 kts 231°
2026-04-16 04:28 10.09935 100.98293 31909 ft 493 kts 231°
2026-04-16 04:28 10.05587 100.92921 31910 ft 493 kts 231°
2026-04-16 04:29 10.01268 100.87568 31908 ft 493 kts 231°
2026-04-16 04:29 9.96919 100.82182 31906 ft 493 kts 231°
2026-04-16 04:30 9.92567 100.76795 31906 ft 494 kts 231°
2026-04-16 04:30 9.88213 100.71404 31908 ft 494 kts 231°
2026-04-16 04:31 9.83852 100.66010 31908 ft 494 kts 231°
2026-04-16 04:31 9.79520 100.60657 31906 ft 494 kts 231°
2026-04-16 04:32 9.75158 100.55271 31905 ft 494 kts 231°
2026-04-16 04:32 9.71120 100.49661 31906 ft 493 kts 240°
2026-04-16 04:33 9.68128 100.43463 31908 ft 492 kts 250°
2026-04-16 04:33 9.65839 100.36933 31913 ft 492 kts 251°
2026-04-16 04:34 9.63511 100.30401 31908 ft 493 kts 250°
2026-04-16 04:34 9.61139 100.23882 31903 ft 493 kts 250°
2026-04-16 04:35 9.58767 100.17363 31907 ft 493 kts 250°
2026-04-16 04:35 9.56412 100.10880 31911 ft 493 kts 250°
2026-04-16 04:36 9.53959 100.04396 31914 ft 493 kts 246°
2026-04-16 04:36 9.51107 99.98074 31913 ft 493 kts 245°
2026-04-16 04:37 9.48234 99.91764 31916 ft 494 kts 245°
2026-04-16 04:37 9.45387 99.85425 31908 ft 494 kts 245°
2026-04-16 04:38 9.42429 99.79152 31906 ft 494 kts 240°
2026-04-16 04:38 9.38537 99.73433 31905 ft 493 kts 230°
2026-04-16 04:39 9.33978 99.68301 31897 ft 493 kts 228°
2026-04-16 04:39 9.29364 99.63163 31897 ft 493 kts 228°
2026-04-16 04:40 9.24771 99.58002 31898 ft 493 kts 228°
2026-04-16 04:40 9.20190 99.52833 31890 ft 494 kts 228°
2026-04-16 04:41 9.15604 99.47654 31884 ft 494 kts 228°
2026-04-16 04:41 9.11044 99.42504 31888 ft 494 kts 228°
2026-04-16 04:42 9.06458 99.37327 31894 ft 494 kts 228°
2026-04-16 04:42 9.01865 99.32144 31885 ft 494 kts 228°
2026-04-16 04:43 8.97281 99.26969 31893 ft 493 kts 228°
2026-04-16 04:43 8.92699 99.21800 31893 ft 493 kts 228°
2026-04-16 04:44 8.88145 99.16671 31888 ft 493 kts 228°
2026-04-16 04:44 8.83565 99.11512 31893 ft 492 kts 228°
2026-04-16 04:45 8.78979 99.06355 31882 ft 492 kts 228°
2026-04-16 04:45 8.74402 99.01214 31891 ft 492 kts 228°
2026-04-16 04:46 8.69811 98.96072 31886 ft 492 kts 227°
2026-04-16 04:46 8.65258 98.90958 31897 ft 492 kts 227°
2026-04-16 04:47 8.60670 98.85817 31893 ft 492 kts 227°
2026-04-16 04:47 8.56081 98.80675 31899 ft 493 kts 227°
2026-04-16 04:48 8.51484 98.75524 31895 ft 493 kts 227°
2026-04-16 04:48 8.46923 98.70415 31899 ft 493 kts 227°
2026-04-16 04:49 8.42333 98.65283 31896 ft 492 kts 227°
2026-04-16 04:49 8.37741 98.60153 31894 ft 492 kts 227°
2026-04-16 04:50 8.33156 98.55019 31898 ft 491 kts 227°
2026-04-16 04:50 8.28569 98.49890 31893 ft 491 kts 227°
2026-04-16 04:51 8.24010 98.44800 31891 ft 492 kts 227°
2026-04-16 04:51 8.19418 98.39665 31887 ft 493 kts 227°
2026-04-16 04:52 8.14827 98.34529 31893 ft 492 kts 227°
2026-04-16 04:52 8.10482 98.29190 31896 ft 493 kts 235°
2026-04-16 04:53 8.06979 98.23231 31883 ft 494 kts 239°
2026-04-16 04:53 8.03568 98.17221 31890 ft 494 kts 239°
2026-04-16 04:54 8.00139 98.11263 31888 ft 494 kts 238°
2026-04-16 04:54 7.96671 98.05282 31891 ft 494 kts 238°
2026-04-16 04:55 7.93195 97.99293 31888 ft 494 kts 238°
2026-04-16 04:55 7.89724 97.93313 31888 ft 494 kts 238°
2026-04-16 04:56 7.86255 97.87329 31890 ft 494 kts 238°
2026-04-16 04:56 7.82779 97.81343 31889 ft 494 kts 238°
2026-04-16 04:57 7.79329 97.75402 31888 ft 494 kts 238°
2026-04-16 04:57 7.75832 97.69434 31887 ft 494 kts 237°
2026-04-16 04:58 7.72170 97.63578 31889 ft 494 kts 237°
2026-04-16 04:58 7.68495 97.57727 31888 ft 494 kts 237°
2026-04-16 04:59 7.64852 97.51864 31890 ft 494 kts 237°
2026-04-16 04:59 7.61343 97.45953 31888 ft 494 kts 239°
2026-04-16 05:00 7.57894 97.39952 31889 ft 494 kts 239°
2026-04-16 05:00 7.54429 97.33955 31888 ft 494 kts 239°
2026-04-16 05:01 7.50949 97.27975 31890 ft 495 kts 239°
2026-04-16 05:01 7.47465 97.21989 31888 ft 495 kts 239°
2026-04-16 05:02 7.44000 97.16047 31887 ft 495 kts 239°
2026-04-16 05:02 7.40513 97.10064 31892 ft 495 kts 239°
2026-04-16 05:03 7.37019 97.04073 31889 ft 496 kts 239°
2026-04-16 05:04 7.31791 96.95113 31890 ft 496 kts 239°
2026-04-16 05:04 7.28298 96.89125 31887 ft 496 kts 239°
2026-04-16 05:05 7.24821 96.83127 31887 ft 495 kts 239°
2026-04-16 05:05 7.21375 96.77118 31888 ft 495 kts 240°
2026-04-16 05:06 7.17927 96.71097 31888 ft 496 kts 240°
2026-04-16 05:06 7.14497 96.65117 31891 ft 496 kts 240°
2026-04-16 05:07 7.11036 96.59099 31888 ft 496 kts 240°
2026-04-16 05:07 7.07575 96.53079 31890 ft 496 kts 240°
2026-04-16 05:08 7.04114 96.47063 31888 ft 496 kts 240°
2026-04-16 05:08 7.00655 96.41054 31885 ft 496 kts 240°
2026-04-16 05:09 6.97220 96.35087 31888 ft 496 kts 240°
2026-04-16 05:09 6.93760 96.29077 31889 ft 496 kts 240°
2026-04-16 05:10 6.90303 96.23076 31888 ft 495 kts 240°
2026-04-16 05:10 6.86846 96.17072 31889 ft 495 kts 240°
2026-04-16 05:11 6.83385 96.11072 31890 ft 496 kts 240°
2026-04-16 05:11 6.79924 96.05073 31888 ft 496 kts 240°
2026-04-16 05:12 6.76484 95.99107 31888 ft 496 kts 240°
2026-04-16 05:12 6.73068 95.93075 31890 ft 497 kts 241°
2026-04-16 05:13 6.69719 95.86988 31891 ft 497 kts 241°
2026-04-16 05:13 6.66930 95.81927 31886 ft 498 kts 241°
2026-04-16 05:14 6.63556 95.75836 31889 ft 498 kts 241°
2026-04-16 05:14 6.60171 95.69736 31889 ft 498 kts 241°
2026-04-16 05:15 6.56779 95.63709 31888 ft 498 kts 239°
2026-04-16 05:15 6.53208 95.57741 31888 ft 498 kts 239°
2026-04-16 05:16 6.49614 95.51782 31888 ft 497 kts 239°
2026-04-16 05:16 6.46051 95.45819 31887 ft 497 kts 239°
2026-04-16 05:17 6.42524 95.39892 31889 ft 497 kts 239°
2026-04-16 05:17 6.38980 95.33930 31888 ft 497 kts 239°
2026-04-16 05:18 6.35433 95.27973 31888 ft 497 kts 239°
2026-04-16 05:18 6.31882 95.22011 31888 ft 497 kts 239°
2026-04-16 05:19 6.28331 95.16053 31887 ft 497 kts 239°
2026-04-16 05:19 6.24792 95.10116 31890 ft 497 kts 239°
2026-04-16 05:20 6.21280 95.04129 31886 ft 497 kts 240°
2026-04-16 05:20 6.17862 94.98084 31888 ft 497 kts 240°
2026-04-16 05:21 6.14449 94.92045 31888 ft 497 kts 240°
2026-04-16 05:21 6.11043 94.86052 31889 ft 497 kts 240°
2026-04-16 05:22 6.07605 94.80020 31890 ft 498 kts 240°
2026-04-16 05:22 6.04164 94.73982 31889 ft 497 kts 240°
2026-04-16 05:23 6.00722 94.67944 31890 ft 498 kts 239°
2026-04-16 05:23 5.96867 94.62175 31897 ft 497 kts 233°
2026-04-16 05:24 5.92758 94.56571 31883 ft 498 kts 233°
2026-04-16 05:24 5.88686 94.50999 31891 ft 498 kts 233°
2026-04-16 05:25 5.84611 94.45364 31892 ft 499 kts 233°
2026-04-16 05:25 5.80538 94.39720 31892 ft 499 kts 233°
2026-04-16 05:26 5.76460 94.34074 31889 ft 500 kts 233°
2026-04-16 05:26 5.72387 94.28429 31891 ft 499 kts 233°
2026-04-16 05:27 5.68310 94.22791 31888 ft 498 kts 233°
2026-04-16 05:27 5.64238 94.17160 31888 ft 498 kts 233°
2026-04-16 05:28 5.60191 94.11563 31889 ft 498 kts 233°
2026-04-16 05:28 5.56123 94.05941 31887 ft 497 kts 233°
2026-04-16 05:29 5.52056 94.00314 31891 ft 498 kts 233°
2026-04-16 05:29 5.47994 93.94699 31887 ft 497 kts 233°
2026-04-16 05:30 5.43918 93.89083 31889 ft 498 kts 233°
2026-04-16 05:30 5.39842 93.83445 31889 ft 499 kts 233°
2026-04-16 05:31 5.35776 93.77837 31890 ft 500 kts 233°
2026-04-16 05:31 5.31594 93.72267 31891 ft 499 kts 232°
2026-04-16 05:32 5.27375 93.66723 31889 ft 500 kts 232°
2026-04-16 05:32 5.23108 93.61186 31894 ft 500 kts 232°
2026-04-16 05:33 5.18924 93.55683 31883 ft 500 kts 232°
2026-04-16 05:33 5.14748 93.50106 31891 ft 499 kts 232°
2026-04-16 05:34 5.10571 93.44550 31890 ft 499 kts 232°
2026-04-16 05:34 5.06374 93.39007 31891 ft 499 kts 232°
2026-04-16 05:35 5.02166 93.33459 31891 ft 500 kts 232°
2026-04-16 05:35 4.97962 93.27914 31888 ft 500 kts 232°
2026-04-16 05:36 4.93782 93.22394 31890 ft 500 kts 232°
2026-04-16 05:36 4.89574 93.16842 31890 ft 500 kts 232°
2026-04-16 05:37 4.85370 93.11297 31888 ft 500 kts 232°
2026-04-16 05:37 4.81159 93.05744 31889 ft 500 kts 232°
2026-04-16 05:38 4.76944 93.00187 31889 ft 500 kts 232°
2026-04-16 05:38 4.72730 92.94631 31889 ft 500 kts 232°
2026-04-16 05:39 4.68542 92.89113 31888 ft 500 kts 232°
2026-04-16 05:39 4.64325 92.83556 31886 ft 501 kts 232°
2026-04-16 05:40 4.60106 92.77999 31889 ft 501 kts 232°
2026-04-16 05:40 4.55892 92.72450 31887 ft 500 kts 232°
2026-04-16 05:41 4.51670 92.66893 31890 ft 501 kts 232°
2026-04-16 05:41 4.47454 92.61342 31889 ft 501 kts 232°
2026-04-16 05:42 4.43261 92.55822 31888 ft 501 kts 232°
2026-04-16 05:42 4.39038 92.50265 31892 ft 501 kts 232°
2026-04-16 05:43 4.34802 92.44692 31888 ft 502 kts 232°
2026-04-16 05:43 4.30571 92.39126 31890 ft 502 kts 232°
2026-04-16 05:44 4.26336 92.33557 31889 ft 502 kts 232°
2026-04-16 05:44 4.22127 92.28023 31893 ft 502 kts 232°
2026-04-16 05:45 4.17884 92.22444 31888 ft 502 kts 232°
2026-04-16 05:45 4.13644 92.16871 31889 ft 502 kts 232°
2026-04-16 05:46 4.09409 92.11308 31889 ft 502 kts 232°
2026-04-16 05:46 4.05168 92.05733 31889 ft 503 kts 232°
2026-04-16 05:47 4.00954 92.00198 31890 ft 503 kts 232°
2026-04-16 05:47 3.96692 91.94642 31888 ft 503 kts 231°
2026-04-16 05:48 3.92417 91.89101 31888 ft 503 kts 231°
2026-04-16 05:48 3.88142 91.83552 31890 ft 502 kts 231°
2026-04-16 05:49 3.83895 91.78037 31888 ft 503 kts 231°
2026-04-16 05:49 3.79629 91.72494 31888 ft 503 kts 231°
2026-04-16 05:50 3.75357 91.66945 31890 ft 502 kts 231°
2026-04-16 05:50 3.71093 91.61409 31888 ft 502 kts 231°
2026-04-16 05:51 3.66825 91.55870 31888 ft 502 kts 231°
2026-04-16 05:51 3.62559 91.50331 31888 ft 502 kts 231°
2026-04-16 05:52 3.58291 91.44790 31888 ft 502 kts 231°
2026-04-16 05:52 3.54058 91.39297 31947 ft 501 kts 231°
2026-04-16 05:53 3.49794 91.33767 31948 ft 501 kts 231°
2026-04-16 05:53 3.45529 91.28235 31930 ft 502 kts 231°
2026-04-16 05:54 3.41271 91.22709 31945 ft 501 kts 231°
2026-04-16 05:54 3.37041 91.17221 31956 ft 501 kts 232°
2026-04-16 05:55 3.32784 91.11701 31954 ft 501 kts 231°
2026-04-16 05:55 3.28521 91.06173 31955 ft 501 kts 231°
2026-04-16 05:56 3.24265 91.00651 31953 ft 501 kts 232°
2026-04-16 05:56 3.20005 90.95130 31956 ft 501 kts 232°
2026-04-16 05:57 3.15747 90.89607 31955 ft 501 kts 232°
2026-04-16 05:57 3.11489 90.84089 31952 ft 501 kts 232°
2026-04-16 05:58 3.07250 90.78602 31953 ft 501 kts 232°
2026-04-16 05:58 3.02986 90.73087 31952 ft 501 kts 232°
2026-04-16 05:59 2.98727 90.67568 31954 ft 500 kts 232°
2026-04-16 05:59 2.94468 90.62051 31953 ft 500 kts 232°
2026-04-16 06:00 2.90237 90.56576 31954 ft 501 kts 232°
2026-04-16 06:00 2.85975 90.51063 31953 ft 500 kts 232°
2026-04-16 06:01 2.81721 90.45557 31953 ft 500 kts 232°
2026-04-16 06:01 2.77462 90.40050 31954 ft 500 kts 232°
2026-04-16 06:02 2.71072 90.31784 31955 ft 500 kts 232°
2026-04-16 06:02 2.66840 90.26308 31956 ft 501 kts 232°
2026-04-16 06:03 2.62581 90.20801 31954 ft 501 kts 232°
2026-04-16 06:03 2.58322 90.15290 31954 ft 501 kts 232°
2026-04-16 06:04 2.54058 90.09773 31955 ft 501 kts 232°
2026-04-16 06:04 2.49786 90.04256 31951 ft 501 kts 232°
2026-04-16 06:05 2.45542 89.98773 31953 ft 501 kts 232°
2026-04-16 06:05 2.41283 89.93264 31953 ft 501 kts 232°
2026-04-16 06:06 2.37019 89.87752 31955 ft 500 kts 232°
2026-04-16 06:06 2.32758 89.82244 31955 ft 501 kts 232°
2026-04-16 06:07 2.28482 89.76719 31953 ft 501 kts 232°
2026-04-16 06:07 2.24233 89.71173 31908 ft 502 kts 232°
2026-04-16 06:08 2.20026 89.65655 31902 ft 502 kts 232°
2026-04-16 06:08 2.15788 89.60098 31898 ft 501 kts 232°
2026-04-16 06:09 2.11558 89.54562 31898 ft 501 kts 232°
2026-04-16 06:09 2.07327 89.49026 31898 ft 501 kts 232°
2026-04-16 06:10 2.03100 89.43494 31894 ft 501 kts 232°
2026-04-16 06:10 1.98891 89.37988 31883 ft 502 kts 232°
2026-04-16 06:11 1.94639 89.32425 31880 ft 504 kts 232°
2026-04-16 06:11 1.91100 89.27794 31883 ft 504 kts 232°
2026-04-16 06:12 1.86832 89.22210 31880 ft 505 kts 232°
2026-04-16 06:12 1.82555 89.16618 31878 ft 506 kts 232°
2026-04-16 06:13 1.78281 89.11028 31880 ft 506 kts 232°
2026-04-16 06:13 1.74034 89.05469 31880 ft 506 kts 232°
2026-04-16 06:14 1.69760 88.99883 31877 ft 505 kts 232°
2026-04-16 06:14 1.65492 88.94306 31878 ft 505 kts 232°
2026-04-16 06:15 1.61229 88.88728 31879 ft 504 kts 232°
2026-04-16 06:15 1.56972 88.83157 31878 ft 504 kts 232°
2026-04-16 06:16 1.52705 88.77582 31880 ft 504 kts 232°
2026-04-16 06:16 1.48472 88.72048 31878 ft 504 kts 232°
2026-04-16 06:17 1.44211 88.66479 31880 ft 504 kts 232°
2026-04-16 06:17 1.39953 88.60906 31880 ft 504 kts 232°
2026-04-16 06:18 1.35702 88.55343 31878 ft 504 kts 232°
2026-04-16 06:18 1.31445 88.49771 31879 ft 504 kts 232°
2026-04-16 06:19 1.27214 88.44234 31880 ft 505 kts 232°
2026-04-16 06:19 1.22945 88.38646 31880 ft 505 kts 232°
2026-04-16 06:20 1.18678 88.33060 31880 ft 506 kts 232°
2026-04-16 06:20 1.14406 88.27470 31880 ft 506 kts 232°
2026-04-16 06:21 1.10160 88.21912 31879 ft 506 kts 232°
2026-04-16 06:21 1.05889 88.16324 31880 ft 506 kts 232°
2026-04-16 06:22 1.01616 88.10733 31879 ft 506 kts 232°
2026-04-16 06:22 0.97334 88.05133 31880 ft 506 kts 232°
2026-04-16 06:23 0.93061 87.99540 31879 ft 506 kts 232°
2026-04-16 06:23 0.88807 87.93971 31880 ft 507 kts 232°
2026-04-16 06:24 0.84524 87.88369 31880 ft 507 kts 232°
2026-04-16 06:24 0.80233 87.82756 31876 ft 508 kts 232°
2026-04-16 06:25 0.75944 87.77145 31873 ft 508 kts 232°
2026-04-16 06:25 0.71650 87.71529 31870 ft 508 kts 232°
2026-04-16 06:26 0.67386 87.65954 31872 ft 508 kts 232°
2026-04-16 06:26 0.63102 87.60347 31870 ft 508 kts 232°
2026-04-16 06:27 0.58818 87.54740 31873 ft 507 kts 232°
2026-04-16 06:27 0.54535 87.49139 31879 ft 507 kts 232°
2026-04-16 06:28 0.50250 87.43534 31880 ft 507 kts 232°
2026-04-16 06:28 0.45962 87.37925 31878 ft 507 kts 232°
2026-04-16 06:29 0.41706 87.32362 31879 ft 507 kts 232°
2026-04-16 06:29 0.37416 87.26752 31881 ft 507 kts 232°
2026-04-16 06:30 0.33136 87.21149 31881 ft 507 kts 232°
2026-04-16 06:30 0.28851 87.15544 31878 ft 507 kts 232°
2026-04-16 06:31 0.24564 87.09938 31878 ft 507 kts 232°
2026-04-16 06:31 0.20310 87.04372 31881 ft 507 kts 232°
2026-04-16 06:32 0.16020 86.98763 31879 ft 508 kts 232°
2026-04-16 06:32 0.11737 86.93158 31879 ft 507 kts 232°
2026-04-16 06:33 0.07448 86.87546 31880 ft 507 kts 232°
2026-04-16 06:33 0.03167 86.81948 31878 ft 507 kts 232°
2026-04-16 06:34 -0.01118 86.76345 31880 ft 508 kts 232°
2026-04-16 06:34 -0.05383 86.70768 31883 ft 509 kts 232°
2026-04-16 06:35 -0.09682 86.65142 31880 ft 509 kts 232°
2026-04-16 06:35 -0.13984 86.59512 31880 ft 509 kts 232°
2026-04-16 06:36 -0.18288 86.53882 31878 ft 510 kts 232°
2026-04-16 06:36 -0.22590 86.48254 31879 ft 510 kts 232°
2026-04-16 06:37 -0.26898 86.42616 31883 ft 509 kts 232°
2026-04-16 06:37 -0.31196 86.36996 31877 ft 509 kts 232°
2026-04-16 06:38 -0.35461 86.31419 31878 ft 508 kts 232°
2026-04-16 06:38 -0.39753 86.25809 31879 ft 508 kts 232°
2026-04-16 06:39 -0.44048 86.20196 31879 ft 508 kts 232°
2026-04-16 06:39 -0.48337 86.14582 31884 ft 507 kts 232°
2026-04-16 06:40 -0.52618 86.08988 31863 ft 506 kts 232°
2026-04-16 06:40 -0.56860 86.03433 31874 ft 505 kts 232°
2026-04-16 06:41 -0.61118 85.97857 31878 ft 504 kts 232°
2026-04-16 06:41 -0.65372 85.92296 31879 ft 503 kts 232°
2026-04-16 06:42 -0.69603 85.86761 31881 ft 504 kts 232°
2026-04-16 06:42 -0.73857 85.81194 31877 ft 504 kts 232°
2026-04-16 06:43 -0.78118 85.75621 31876 ft 504 kts 232°
2026-04-16 06:43 -0.82379 85.70048 31869 ft 505 kts 232°
2026-04-16 06:44 -0.86638 85.64473 31876 ft 505 kts 232°
2026-04-16 06:44 -0.90879 85.58926 31881 ft 505 kts 232°
2026-04-16 06:45 -0.95137 85.53349 31878 ft 505 kts 232°
2026-04-16 06:45 -0.99396 85.47774 31880 ft 505 kts 232°
2026-04-16 06:46 -1.03664 85.42188 31881 ft 505 kts 232°
2026-04-16 06:46 -1.07935 85.36599 31877 ft 505 kts 232°
2026-04-16 06:47 -1.12197 85.31026 31877 ft 505 kts 232°
2026-04-16 06:47 -1.16454 85.25450 31880 ft 504 kts 232°
2026-04-16 06:48 -1.20679 85.19918 31879 ft 504 kts 232°
2026-04-16 06:48 -1.24934 85.14347 31879 ft 504 kts 232°
2026-04-16 06:49 -1.29191 85.08776 31880 ft 504 kts 232°
2026-04-16 06:49 -1.33450 85.03198 31880 ft 504 kts 232°
2026-04-16 06:50 -1.37702 84.97627 31879 ft 504 kts 232°
2026-04-16 06:50 -1.41936 84.92088 31881 ft 504 kts 232°
2026-04-16 06:51 -1.46186 84.86521 31878 ft 503 kts 232°
2026-04-16 06:51 -1.50433 84.80959 31881 ft 503 kts 232°
2026-04-16 06:52 -1.54686 84.75390 31881 ft 503 kts 232°
2026-04-16 06:52 -1.58934 84.69825 31880 ft 503 kts 232°
2026-04-16 06:53 -1.63179 84.64265 31882 ft 503 kts 232°
2026-04-16 06:53 -1.67399 84.58736 31880 ft 503 kts 232°
2026-04-16 06:54 -1.71641 84.53178 31880 ft 503 kts 232°
2026-04-16 06:54 -1.75883 84.47620 31880 ft 502 kts 232°
2026-04-16 06:55 -1.80116 84.42068 31878 ft 502 kts 232°
2026-04-16 06:55 -1.84327 84.36552 31880 ft 502 kts 232°
2026-04-16 06:56 -1.88568 84.30992 31879 ft 502 kts 232°
2026-04-16 06:56 -1.92800 84.25442 31880 ft 502 kts 232°
2026-04-16 06:57 -1.97032 84.19894 31879 ft 502 kts 232°
2026-04-16 06:57 -2.00926 84.14111 31886 ft 503 kts 241°
2026-04-16 06:58 -2.03913 84.07780 31888 ft 503 kts 245°
2026-04-16 06:58 -2.06767 84.01448 31878 ft 503 kts 245°
2026-04-16 06:59 -2.09671 83.95085 31881 ft 503 kts 245°
2026-04-16 06:59 -2.12598 83.88737 31878 ft 502 kts 244°
2026-04-16 07:00 -2.15530 83.82397 31879 ft 503 kts 244°
2026-04-16 07:01 -2.19931 83.72873 31877 ft 503 kts 245°
2026-04-16 07:01 -2.22842 83.66568 31881 ft 503 kts 245°
2026-04-16 07:02 -2.25775 83.60216 31880 ft 503 kts 245°
2026-04-16 07:02 -2.28716 83.53850 31879 ft 504 kts 245°
2026-04-16 07:03 -2.31657 83.47486 31879 ft 504 kts 245°
2026-04-16 07:03 -2.34594 83.41121 31879 ft 504 kts 245°
2026-04-16 07:04 -2.37533 83.34749 31879 ft 505 kts 245°
2026-04-16 07:04 -2.40461 83.28408 31886 ft 506 kts 245°
2026-04-16 07:05 -2.43416 83.21997 31879 ft 508 kts 245°
2026-04-16 07:05 -2.46374 83.15589 31876 ft 507 kts 245°
2026-04-16 07:06 -2.49329 83.09184 31877 ft 506 kts 245°
2026-04-16 07:06 -2.52276 83.02789 31874 ft 506 kts 245°
2026-04-16 07:07 -2.55238 82.96376 32549 ft 506 kts 245°
2026-04-16 07:07 -2.56713 82.93181 32978 ft 505 kts 245°
2026-04-16 07:07 -2.58161 82.90040 33378 ft 503 kts 245°
2026-04-16 07:07 -2.59627 82.86862 33739 ft 503 kts 245°
2026-04-16 07:08 -2.61091 82.83689 34105 ft 502 kts 245°
2026-04-16 07:08 -2.62549 82.80521 34485 ft 501 kts 245°
2026-04-16 07:08 -2.64005 82.77357 34899 ft 499 kts 245°
2026-04-16 07:08 -2.65451 82.74214 35306 ft 497 kts 245°
2026-04-16 07:09 -2.66890 82.71083 35684 ft 495 kts 245°
2026-04-16 07:09 -2.68331 82.67955 35931 ft 495 kts 245°
2026-04-16 07:09 -2.69777 82.64820 35884 ft 496 kts 245°
2026-04-16 07:10 -2.72659 82.58567 35879 ft 494 kts 245°
2026-04-16 07:10 -2.75519 82.52362 35880 ft 494 kts 245°
2026-04-16 07:11 -2.78395 82.46113 35868 ft 494 kts 245°
2026-04-16 07:11 -2.80787 82.40921 35891 ft 494 kts 245°
2026-04-16 07:12 -2.83664 82.34672 35888 ft 495 kts 245°
2026-04-16 07:12 -2.86547 82.28408 35877 ft 495 kts 245°
2026-04-16 07:13 -2.89430 82.22136 35883 ft 495 kts 245°
2026-04-16 07:13 -2.92295 82.15913 35880 ft 495 kts 245°
2026-04-16 07:14 -2.95178 82.09644 35864 ft 496 kts 245°
2026-04-16 07:14 -2.98062 82.03373 35883 ft 496 kts 245°
2026-04-16 07:15 -3.00949 81.97099 35876 ft 496 kts 245°
2026-04-16 07:15 -3.03832 81.90830 35881 ft 496 kts 245°
2026-04-16 07:16 -3.06714 81.84556 35880 ft 496 kts 245°
2026-04-16 07:16 -3.09602 81.78280 35869 ft 496 kts 245°
2026-04-16 07:17 -3.12468 81.72051 35880 ft 496 kts 245°
2026-04-16 07:17 -3.15347 81.65776 35883 ft 496 kts 245°
2026-04-16 07:18 -3.18229 81.59498 35866 ft 496 kts 245°
2026-04-16 07:18 -3.21121 81.53203 35882 ft 497 kts 245°
2026-04-16 07:19 -3.23989 81.46964 35882 ft 496 kts 245°
2026-04-16 07:19 -3.26875 81.40684 35879 ft 497 kts 245°
2026-04-16 07:20 -3.29761 81.34391 35882 ft 497 kts 245°
2026-04-16 07:20 -3.32645 81.28104 35885 ft 497 kts 245°
2026-04-16 07:21 -3.35527 81.21818 35866 ft 496 kts 245°
2026-04-16 07:21 -3.38390 81.15584 35881 ft 496 kts 245°
2026-04-16 07:22 -3.41266 81.09307 35883 ft 495 kts 245°
2026-04-16 07:22 -3.44144 81.03038 35864 ft 495 kts 245°
2026-04-16 07:23 -3.47020 80.96768 35881 ft 495 kts 245°
2026-04-16 07:23 -3.49893 80.90492 35883 ft 495 kts 245°
2026-04-16 07:24 -3.52765 80.84228 35879 ft 495 kts 245°
2026-04-16 07:24 -3.55635 80.77970 35882 ft 495 kts 245°
2026-04-16 07:25 -3.58488 80.71741 35880 ft 495 kts 245°
2026-04-16 07:25 -3.61359 80.65470 35879 ft 496 kts 245°
2026-04-16 07:26 -3.64232 80.59192 35880 ft 496 kts 245°
2026-04-16 07:26 -3.67103 80.52913 35879 ft 495 kts 245°
2026-04-16 07:27 -3.69976 80.46640 35885 ft 496 kts 245°
2026-04-16 07:27 -3.72851 80.40358 35880 ft 496 kts 245°
2026-04-16 07:28 -3.75724 80.34077 35881 ft 496 kts 245°
2026-04-16 07:28 -3.78580 80.27832 35881 ft 496 kts 245°
2026-04-16 07:29 -3.81458 80.21534 35884 ft 496 kts 245°
2026-04-16 07:29 -3.84335 80.15238 35881 ft 497 kts 245°
2026-04-16 07:30 -3.87205 80.08955 35880 ft 496 kts 245°
2026-04-16 07:30 -3.90058 80.02708 35885 ft 496 kts 245°
2026-04-16 07:31 -3.92931 79.96428 35881 ft 496 kts 245°
2026-04-16 07:31 -3.95803 79.90140 35882 ft 496 kts 245°
2026-04-16 07:32 -3.98670 79.83853 35888 ft 495 kts 245°
2026-04-16 07:32 -4.01538 79.77570 35866 ft 496 kts 245°
2026-04-16 07:33 -4.04387 79.71327 35883 ft 496 kts 245°
2026-04-16 07:33 -4.07256 79.65041 35882 ft 495 kts 245°
2026-04-16 07:34 -4.10118 79.58768 35883 ft 495 kts 245°
2026-04-16 07:34 -4.12983 79.52485 35881 ft 496 kts 245°
2026-04-16 07:35 -4.15841 79.46201 35868 ft 495 kts 245°
2026-04-16 07:35 -4.18681 79.39973 35885 ft 495 kts 245°
2026-04-16 07:36 -4.21543 79.33696 35882 ft 495 kts 245°
2026-04-16 07:36 -4.24402 79.27420 35880 ft 495 kts 245°
2026-04-16 07:37 -4.27264 79.21139 35883 ft 495 kts 245°
2026-04-16 07:37 -4.30099 79.14908 35880 ft 495 kts 245°
2026-04-16 07:38 -4.32958 79.08633 35866 ft 495 kts 245°
2026-04-16 07:38 -4.35811 79.02361 35883 ft 495 kts 245°
2026-04-16 07:39 -4.38660 78.96095 35884 ft 494 kts 245°
2026-04-16 07:39 -4.41510 78.89827 35879 ft 494 kts 245°
2026-04-16 07:40 -4.44361 78.83561 35883 ft 493 kts 245°
2026-04-16 07:40 -4.47206 78.77305 35881 ft 493 kts 245°
2026-04-16 07:41 -4.50047 78.71061 35881 ft 492 kts 245°
2026-04-16 07:41 -4.52867 78.64855 35884 ft 492 kts 245°
2026-04-16 07:42 -4.55704 78.58605 35863 ft 492 kts 245°
2026-04-16 07:42 -4.58537 78.52361 35885 ft 492 kts 245°
2026-04-16 07:43 -4.61370 78.46119 35882 ft 492 kts 245°
2026-04-16 07:43 -4.64203 78.39882 35880 ft 492 kts 245°
2026-04-16 07:44 -4.67035 78.33644 35880 ft 492 kts 245°
2026-04-16 07:44 -4.69866 78.27393 35886 ft 492 kts 245°
2026-04-16 07:45 -4.72680 78.21195 35880 ft 492 kts 245°
2026-04-16 07:45 -4.75511 78.14953 35880 ft 492 kts 245°
2026-04-16 07:46 -4.78341 78.08709 35881 ft 492 kts 245°
2026-04-16 07:46 -4.81170 78.02466 35884 ft 491 kts 245°
2026-04-16 07:47 -4.83994 77.96229 35867 ft 491 kts 245°
2026-04-16 07:47 -4.86820 77.89988 35879 ft 491 kts 245°
2026-04-16 07:48 -4.89623 77.83797 35881 ft 491 kts 245°
2026-04-16 07:48 -4.92441 77.77567 35885 ft 490 kts 245°
2026-04-16 07:49 -4.95258 77.71350 35862 ft 489 kts 245°
2026-04-16 07:49 -4.98065 77.65139 35881 ft 489 kts 245°
2026-04-16 07:50 -5.00874 77.58930 35882 ft 488 kts 245°
2026-04-16 07:50 -5.03678 77.52730 35880 ft 488 kts 245°
2026-04-16 07:51 -5.06459 77.46572 35880 ft 488 kts 245°
2026-04-16 07:51 -5.09258 77.40374 35882 ft 488 kts 245°
2026-04-16 07:52 -5.12063 77.34162 35881 ft 488 kts 245°
2026-04-16 07:52 -5.14866 77.27953 35879 ft 488 kts 245°
2026-04-16 07:53 -5.17669 77.21745 35880 ft 488 kts 245°
2026-04-16 07:53 -5.20473 77.15535 35883 ft 488 kts 245°
2026-04-16 07:54 -5.23255 77.09371 35880 ft 489 kts 245°
2026-04-16 07:54 -5.26062 77.03152 35881 ft 489 kts 245°
2026-04-16 07:55 -5.28862 76.96936 35880 ft 489 kts 246°
2026-04-16 07:55 -5.31656 76.90725 35882 ft 488 kts 246°
2026-04-16 07:56 -5.34451 76.84522 35883 ft 488 kts 246°
2026-04-16 07:56 -5.37229 76.78359 35871 ft 488 kts 246°
2026-04-16 07:57 -5.40021 76.72158 35882 ft 487 kts 246°
2026-04-16 07:57 -5.42810 76.65966 35882 ft 487 kts 246°
2026-04-16 07:58 -5.45603 76.59766 35880 ft 486 kts 246°
2026-04-16 07:58 -5.48385 76.53571 35879 ft 486 kts 246°
2026-04-16 07:59 -5.51148 76.47426 35880 ft 486 kts 246°
2026-04-16 07:59 -5.53931 76.41237 35881 ft 486 kts 246°
2026-04-16 08:00 -5.56713 76.35043 35880 ft 486 kts 246°
2026-04-16 08:00 -5.59497 76.28851 35884 ft 486 kts 246°
2026-04-16 08:01 -5.62257 76.22706 35869 ft 485 kts 246°
2026-04-16 08:01 -5.65030 76.16531 35867 ft 485 kts 246°
2026-04-16 08:02 -5.67804 76.10348 35879 ft 485 kts 246°
2026-04-16 08:02 -5.71961 76.01084 35883 ft 485 kts 246°
2026-04-16 08:03 -5.74709 75.94953 35882 ft 484 kts 246°
2026-04-16 08:03 -5.77475 75.88785 35879 ft 484 kts 246°
2026-04-16 08:04 -5.80241 75.82605 35869 ft 484 kts 246°
2026-04-16 08:04 -5.83008 75.76432 35867 ft 484 kts 246°
2026-04-16 08:05 -5.85773 75.70262 35880 ft 484 kts 246°
2026-04-16 08:05 -5.88535 75.64093 35882 ft 484 kts 246°
2026-04-16 08:06 -5.91295 75.57923 35881 ft 484 kts 246°
2026-04-16 08:06 -5.94039 75.51790 35877 ft 484 kts 246°
2026-04-16 08:07 -5.96799 75.45619 35879 ft 484 kts 246°
2026-04-16 08:07 -5.99557 75.39450 35880 ft 484 kts 246°
2026-04-16 08:08 -6.02313 75.33279 35881 ft 484 kts 246°
2026-04-16 08:08 -6.04603 75.28158 35882 ft 483 kts 246°
2026-04-16 08:09 -6.07801 75.20999 35879 ft 482 kts 246°
2026-04-16 08:09 -6.10539 75.14860 35881 ft 481 kts 246°
2026-04-16 08:10 -6.12815 75.09759 35881 ft 479 kts 246°
2026-04-16 08:10 -6.15540 75.03650 35873 ft 478 kts 246°
2026-04-16 08:11 -6.18700 74.96566 35880 ft 477 kts 246°
2026-04-16 08:11 -6.20974 74.91468 35881 ft 476 kts 246°
2026-04-16 08:12 -6.23665 74.85433 35880 ft 476 kts 246°
2026-04-16 08:12 -6.26368 74.79363 35881 ft 475 kts 246°
2026-04-16 08:13 -6.29071 74.73290 35880 ft 475 kts 246°
2026-04-16 08:13 -6.31773 74.67226 35880 ft 475 kts 246°
2026-04-16 08:14 -6.34475 74.61159 35884 ft 475 kts 246°
2026-04-16 08:14 -6.37156 74.55129 35873 ft 476 kts 246°
2026-04-16 08:15 -6.39854 74.49059 35884 ft 475 kts 246°
2026-04-16 08:15 -6.42553 74.42987 35883 ft 475 kts 246°
2026-04-16 08:16 -6.45248 74.36919 35879 ft 475 kts 246°
2026-04-16 08:16 -6.47941 74.30859 35883 ft 474 kts 246°
2026-04-16 08:17 -6.50630 74.24802 35881 ft 474 kts 246°
2026-04-16 08:17 -6.53304 74.18782 35877 ft 474 kts 246°
2026-04-16 08:19 -6.64054 73.94533 35882 ft 475 kts 246°
2026-04-16 08:20 -6.66725 73.88506 35881 ft 474 kts 246°
2026-04-16 08:20 -6.69405 73.82453 35879 ft 474 kts 246°
2026-04-16 08:21 -6.72086 73.76396 35880 ft 473 kts 246°
2026-04-16 08:21 -6.74770 73.70334 35882 ft 473 kts 246°
2026-04-16 08:22 -6.77436 73.64310 35874 ft 473 kts 246°
2026-04-16 08:22 -6.80110 73.58259 35880 ft 474 kts 246°
2026-04-16 08:23 -6.82790 73.52193 35875 ft 474 kts 246°
2026-04-16 08:23 -6.85469 73.46133 35882 ft 474 kts 246°
2026-04-16 08:24 -6.88148 73.40064 35880 ft 474 kts 246°
2026-04-16 08:24 -6.90807 73.34039 35871 ft 474 kts 246°
2026-04-16 08:25 -6.93488 73.27966 35855 ft 475 kts 247°
2026-04-16 08:25 -6.96172 73.21879 35853 ft 475 kts 247°
2026-04-16 08:26 -6.98856 73.15791 35856 ft 475 kts 247°
2026-04-16 08:26 -7.01518 73.09755 35844 ft 475 kts 247°
2026-04-16 08:27 -7.04194 73.03677 35849 ft 474 kts 247°
2026-04-16 08:27 -7.06866 72.97604 35848 ft 474 kts 247°
2026-04-16 08:28 -7.09541 72.91533 35857 ft 474 kts 247°
2026-04-16 08:28 -7.12212 72.85467 35856 ft 473 kts 247°
2026-04-16 08:29 -7.14857 72.79447 35844 ft 473 kts 247°
2026-04-16 08:29 -7.17525 72.73383 35849 ft 473 kts 247°
2026-04-16 08:30 -7.20187 72.67323 35857 ft 473 kts 247°
2026-04-16 08:30 -7.22849 72.61264 35845 ft 473 kts 247°
2026-04-16 08:31 -7.25511 72.55201 35857 ft 473 kts 247°
2026-04-16 08:31 -7.28152 72.49183 35850 ft 472 kts 247°
2026-04-16 08:32 -7.30807 72.43133 35857 ft 472 kts 247°
2026-04-16 08:32 -7.33782 72.37236 35854 ft 472 kts 242°
2026-04-16 08:33 -7.37017 72.31486 35848 ft 472 kts 242°
2026-04-16 08:33 -7.40254 72.25732 35853 ft 472 kts 242°
2026-04-16 08:34 -7.43455 72.20005 35853 ft 471 kts 242°
2026-04-16 08:34 -7.46664 72.14239 35855 ft 471 kts 242°
2026-04-16 08:35 -7.49860 72.08484 35857 ft 470 kts 242°
2026-04-16 08:35 -7.53059 72.02729 35857 ft 470 kts 242°
2026-04-16 08:36 -7.56230 71.97021 35848 ft 470 kts 242°
2026-04-16 08:36 -7.59423 71.91269 35861 ft 470 kts 242°
2026-04-16 08:37 -7.62621 71.85510 35846 ft 470 kts 242°
2026-04-16 08:37 -7.65811 71.79760 35856 ft 469 kts 242°
2026-04-16 08:38 -7.68977 71.74054 35845 ft 469 kts 242°
2026-04-16 08:38 -7.72165 71.68307 35857 ft 469 kts 242°
2026-04-16 08:39 -7.75351 71.62554 35857 ft 470 kts 242°
2026-04-16 08:39 -7.78538 71.56802 35851 ft 470 kts 242°
2026-04-16 08:40 -7.81739 71.51028 35853 ft 476 kts 242°
2026-04-16 08:40 -7.84995 71.45143 35860 ft 482 kts 242°
2026-04-16 08:41 -7.88247 71.39266 35858 ft 483 kts 242°
2026-04-16 08:41 -7.91519 71.33346 35857 ft 483 kts 242°
2026-04-16 08:42 -7.94789 71.27434 35853 ft 482 kts 242°
2026-04-16 08:42 -7.98052 71.21530 35856 ft 481 kts 242°
2026-04-16 08:43 -8.01288 71.15677 35845 ft 479 kts 242°
2026-04-16 08:43 -8.04527 71.09813 35849 ft 478 kts 243°
2026-04-16 08:44 -8.07758 71.03954 35846 ft 477 kts 243°
2026-04-16 08:44 -8.10986 70.98109 35849 ft 477 kts 243°
2026-04-16 08:45 -8.14210 70.92258 35857 ft 477 kts 243°
2026-04-16 08:45 -8.17439 70.86401 35851 ft 477 kts 243°
2026-04-16 08:46 -8.20673 70.80538 35854 ft 478 kts 243°
2026-04-16 08:46 -8.23885 70.74706 35851 ft 478 kts 243°
2026-04-16 08:47 -8.27120 70.68828 35859 ft 479 kts 243°
2026-04-16 08:47 -8.30359 70.62939 35848 ft 479 kts 243°
2026-04-16 08:48 -8.33601 70.57052 35855 ft 480 kts 243°
2026-04-16 08:48 -8.36846 70.51157 35858 ft 480 kts 243°
2026-04-16 08:49 -8.40062 70.45305 35855 ft 479 kts 243°
2026-04-16 08:49 -8.43296 70.39414 35847 ft 479 kts 243°
2026-04-16 08:50 -8.46528 70.33531 35853 ft 478 kts 243°
2026-04-16 08:50 -8.49750 70.27656 35859 ft 478 kts 243°
2026-04-16 08:51 -8.52982 70.21765 35856 ft 478 kts 243°
2026-04-16 08:51 -8.56208 70.15884 35856 ft 478 kts 243°
2026-04-16 08:52 -8.59429 70.10008 35866 ft 478 kts 243°
2026-04-16 08:52 -8.62629 70.04165 35871 ft 478 kts 243°
2026-04-16 08:53 -8.65857 69.98273 35863 ft 479 kts 243°
2026-04-16 08:53 -8.69085 69.92383 35848 ft 479 kts 243°
2026-04-16 08:54 -8.72308 69.86492 35857 ft 479 kts 243°
2026-04-16 08:54 -8.75531 69.80602 35858 ft 479 kts 243°
2026-04-16 08:55 -8.78754 69.74720 35858 ft 476 kts 243°
2026-04-16 08:55 -8.81935 69.68905 35857 ft 475 kts 243°
2026-04-16 08:56 -8.85119 69.63066 35849 ft 474 kts 243°
2026-04-16 08:56 -8.88300 69.57227 35867 ft 473 kts 243°
2026-04-16 08:57 -8.91479 69.51401 35857 ft 473 kts 243°
2026-04-16 08:57 -8.94652 69.45583 35864 ft 473 kts 243°
2026-04-16 08:58 -8.97808 69.39796 35853 ft 472 kts 243°
2026-04-16 08:58 -9.00981 69.33974 35854 ft 473 kts 243°
2026-04-16 08:59 -9.04156 69.28142 35855 ft 473 kts 243°
2026-04-16 08:59 -9.07332 69.22310 35868 ft 474 kts 243°
2026-04-16 09:00 -9.10511 69.16468 35855 ft 474 kts 244°
2026-04-16 09:00 -9.13688 69.10620 35865 ft 474 kts 243°
2026-04-16 09:01 -9.18459 69.01850 35880 ft 474 kts 243°
2026-04-16 09:02 -9.21616 68.96036 35879 ft 474 kts 243°
2026-04-16 09:02 -9.24794 68.90181 35879 ft 475 kts 243°
2026-04-16 09:03 -9.27975 68.84320 35865 ft 475 kts 244°
2026-04-16 09:03 -9.31154 68.78461 35875 ft 474 kts 244°
2026-04-16 09:04 -9.34329 68.72607 35879 ft 474 kts 244°
2026-04-16 09:04 -9.37485 68.66781 35881 ft 474 kts 244°
2026-04-16 09:05 -9.40656 68.60928 35866 ft 474 kts 244°
2026-04-16 09:05 -9.43825 68.55078 35865 ft 474 kts 244°
2026-04-16 09:06 -9.46996 68.49220 35879 ft 473 kts 244°
2026-04-16 09:06 -9.50161 68.43366 35876 ft 473 kts 244°
2026-04-16 09:07 -9.53302 68.37557 35861 ft 473 kts 244°
2026-04-16 09:07 -9.56459 68.31716 35880 ft 473 kts 244°
2026-04-16 09:08 -9.59617 68.25863 35860 ft 473 kts 244°
2026-04-16 09:08 -9.62773 68.20016 35864 ft 473 kts 244°
2026-04-16 09:09 -9.65396 68.15155 35864 ft 473 kts 244°
2026-04-16 09:09 -9.68555 68.09302 35879 ft 473 kts 244°
2026-04-16 09:10 -9.71704 68.03460 35881 ft 472 kts 244°
2026-04-16 09:10 -9.74847 67.97623 35880 ft 472 kts 244°
2026-04-16 09:11 -9.77995 67.91780 35880 ft 472 kts 244°
2026-04-16 09:11 -9.81140 67.85939 35879 ft 472 kts 244°
2026-04-16 09:12 -9.84283 67.80097 35880 ft 471 kts 244°
2026-04-16 09:12 -9.87422 67.74259 35879 ft 472 kts 244°
2026-04-16 09:13 -9.90562 67.68417 35880 ft 472 kts 244°
2026-04-16 09:13 -9.93681 67.62605 35879 ft 472 kts 244°
2026-04-16 09:14 -9.96829 67.56745 35861 ft 473 kts 244°
2026-04-16 09:14 -9.99973 67.50886 35865 ft 473 kts 244°
2026-04-16 09:15 -10.03115 67.45025 35879 ft 473 kts 244°
2026-04-16 09:15 -10.06262 67.39155 35863 ft 473 kts 244°
2026-04-16 09:16 -10.09406 67.33285 35866 ft 473 kts 244°
2026-04-16 09:16 -10.12549 67.27417 35879 ft 473 kts 244°
2026-04-16 09:17 -10.15666 67.21589 35881 ft 473 kts 244°
2026-04-16 09:17 -10.18805 67.15726 35866 ft 473 kts 244°
2026-04-16 09:18 -10.21938 67.09864 35882 ft 472 kts 244°
2026-04-16 09:18 -10.25074 67.03993 35880 ft 473 kts 244°
2026-04-16 09:19 -10.28213 66.98116 35879 ft 473 kts 244°
2026-04-16 09:19 -10.31355 66.92230 35880 ft 474 kts 244°
2026-04-16 09:20 -10.34478 66.86377 35866 ft 475 kts 244°
2026-04-16 09:20 -10.37624 66.80476 35876 ft 475 kts 245°
2026-04-16 09:21 -10.40770 66.74568 35879 ft 475 kts 245°
2026-04-16 09:21 -10.43869 66.68650 35886 ft 475 kts 246°
2026-04-16 09:22 -10.46802 66.62644 35880 ft 474 kts 247°
2026-04-16 09:22 -10.49701 66.56630 35884 ft 474 kts 247°
2026-04-16 09:23 -10.52619 66.50633 35885 ft 473 kts 247°
2026-04-16 09:23 -10.55532 66.44678 35889 ft 473 kts 247°
2026-04-16 09:24 -10.58465 66.38684 35888 ft 473 kts 247°
2026-04-16 09:24 -10.61393 66.32692 35891 ft 473 kts 247°
2026-04-16 09:25 -10.64324 66.26694 35886 ft 474 kts 248°
2026-04-16 09:25 -10.67259 66.20691 35886 ft 475 kts 247°
2026-04-16 09:26 -10.70187 66.14692 35885 ft 476 kts 248°
2026-04-16 09:26 -10.73130 66.08643 35893 ft 477 kts 248°
2026-04-16 09:27 -10.76078 66.02593 35889 ft 477 kts 248°
2026-04-16 09:27 -10.79026 65.96534 35891 ft 478 kts 248°
2026-04-16 09:28 -10.81957 65.90509 35890 ft 478 kts 248°
2026-04-16 09:28 -10.84907 65.84449 35888 ft 477 kts 248°
2026-04-16 09:29 -10.87844 65.78405 35886 ft 476 kts 248°
2026-04-16 09:29 -10.90774 65.72375 35890 ft 475 kts 248°
2026-04-16 09:30 -10.93697 65.66347 35897 ft 474 kts 248°
2026-04-16 09:30 -10.96596 65.60372 35900 ft 474 kts 248°
2026-04-16 09:31 -10.99510 65.54362 35897 ft 474 kts 248°
2026-04-16 09:31 -11.02428 65.48343 35898 ft 474 kts 248°
2026-04-16 09:32 -11.05339 65.42333 35899 ft 473 kts 248°
2026-04-16 09:32 -11.08254 65.36314 35898 ft 473 kts 248°
2026-04-16 09:33 -11.11162 65.30300 35899 ft 473 kts 248°
2026-04-16 09:33 -11.14053 65.24320 35898 ft 473 kts 248°
2026-04-16 09:34 -11.16964 65.18297 35899 ft 474 kts 248°
2026-04-16 09:34 -11.19870 65.12276 35897 ft 474 kts 248°
2026-04-16 09:35 -11.22782 65.06241 35899 ft 474 kts 248°
2026-04-16 09:35 -11.25668 65.00256 35898 ft 474 kts 248°
2026-04-16 09:36 -11.28575 64.94223 35896 ft 473 kts 248°
2026-04-16 09:36 -11.31473 64.88197 35902 ft 473 kts 248°
2026-04-16 09:37 -11.34375 64.82175 35908 ft 473 kts 248°
2026-04-16 09:37 -11.37277 64.76146 35907 ft 473 kts 248°
2026-04-16 09:38 -11.40151 64.70167 35908 ft 473 kts 248°
2026-04-16 09:38 -11.43046 64.64140 35908 ft 473 kts 248°
2026-04-16 09:39 -11.45941 64.58107 35906 ft 473 kts 248°
2026-04-16 09:39 -11.48832 64.52080 35908 ft 473 kts 248°
2026-04-16 09:40 -11.51723 64.46051 35907 ft 473 kts 248°
2026-04-16 09:40 -11.54616 64.40017 35907 ft 473 kts 248°
2026-04-16 09:41 -11.57485 64.34029 35907 ft 473 kts 248°
2026-04-16 09:41 -11.60373 64.27996 35907 ft 473 kts 248°
2026-04-16 09:42 -11.63260 64.21960 35908 ft 473 kts 248°
2026-04-16 09:42 -11.66140 64.15929 35906 ft 473 kts 247°
2026-04-16 09:43 -11.69021 64.09902 35909 ft 473 kts 247°
2026-04-16 09:43 -11.71902 64.03867 35907 ft 473 kts 247°
2026-04-16 09:44 -11.74781 63.97831 35905 ft 473 kts 248°
2026-04-16 09:44 -11.77641 63.91830 35912 ft 473 kts 248°
2026-04-16 09:45 -11.80513 63.85798 35918 ft 473 kts 248°
2026-04-16 09:45 -11.83383 63.79765 35915 ft 472 kts 248°
2026-04-16 09:46 -11.86253 63.73736 35920 ft 472 kts 248°
2026-04-16 09:46 -11.89124 63.67701 35917 ft 473 kts 248°
2026-04-16 09:47 -11.91996 63.61652 35915 ft 473 kts 248°
2026-04-16 09:47 -11.94865 63.55608 35918 ft 473 kts 248°
2026-04-16 09:48 -11.97722 63.49592 35915 ft 473 kts 248°
2026-04-16 09:48 -12.00589 63.43544 35917 ft 473 kts 248°
2026-04-16 09:49 -12.03453 63.37497 35918 ft 473 kts 248°
2026-04-16 09:49 -12.06318 63.31455 35921 ft 472 kts 248°
2026-04-16 09:50 -12.09178 63.25416 35927 ft 472 kts 248°
2026-04-16 09:50 -12.12030 63.19377 35924 ft 471 kts 248°
2026-04-16 09:51 -12.14862 63.13383 35927 ft 471 kts 248°
2026-04-16 09:51 -12.17709 63.07354 35935 ft 471 kts 248°
2026-04-16 09:52 -12.20556 63.01321 35936 ft 471 kts 248°
2026-04-16 09:52 -12.23403 62.95284 35935 ft 471 kts 248°
2026-04-16 09:53 -12.26249 62.89248 35936 ft 471 kts 248°
2026-04-16 09:53 -12.29099 62.83198 35936 ft 472 kts 248°
2026-04-16 09:54 -12.31925 62.77194 35935 ft 471 kts 248°
2026-04-16 09:54 -12.34768 62.71149 35936 ft 471 kts 248°
2026-04-16 09:55 -12.37608 62.65105 35935 ft 471 kts 248°
2026-04-16 09:55 -12.40447 62.59062 35935 ft 471 kts 248°
2026-04-16 09:56 -12.43284 62.53021 35933 ft 471 kts 248°
2026-04-16 09:56 -12.46105 62.47005 35937 ft 471 kts 248°
2026-04-16 09:57 -12.48941 62.40954 35937 ft 472 kts 248°
2026-04-16 09:57 -12.51772 62.34903 35933 ft 471 kts 248°
2026-04-16 09:58 -12.54605 62.28855 35935 ft 471 kts 248°
2026-04-16 09:58 -12.57436 62.22806 35934 ft 471 kts 248°
2026-04-16 09:59 -12.60265 62.16756 35936 ft 471 kts 248°
2026-04-16 09:59 -12.63088 62.10710 35935 ft 470 kts 248°
2026-04-16 10:00 -12.65890 62.04708 35935 ft 470 kts 248°
2026-04-16 10:00 -12.68711 61.98660 35936 ft 470 kts 248°
2026-04-16 10:01 -12.72938 61.89589 35936 ft 470 kts 248°
2026-04-16 10:01 -12.75758 61.83533 35935 ft 470 kts 248°
2026-04-16 10:02 -12.78575 61.77480 35938 ft 471 kts 249°
2026-04-16 10:02 -12.81389 61.71421 35934 ft 471 kts 249°
2026-04-16 10:03 -12.84187 61.65399 35936 ft 471 kts 249°
2026-04-16 10:03 -12.87004 61.59337 35934 ft 470 kts 249°
2026-04-16 10:04 -12.89812 61.53289 35937 ft 470 kts 249°
2026-04-16 10:04 -12.92615 61.47242 35945 ft 469 kts 249°
2026-04-16 10:05 -12.95414 61.41198 35944 ft 469 kts 249°
2026-04-16 10:05 -12.98213 61.35157 35945 ft 469 kts 249°
2026-04-16 10:06 -13.00537 61.30132 35944 ft 469 kts 249°
2026-04-16 10:06 -13.03788 61.23095 35943 ft 469 kts 249°
2026-04-16 10:07 -13.06131 61.18027 35945 ft 469 kts 249°
2026-04-16 10:07 -13.08906 61.12014 35944 ft 470 kts 249°
2026-04-16 10:08 -13.11703 61.05953 35944 ft 470 kts 249°
2026-04-16 10:08 -13.14498 60.99891 35946 ft 469 kts 249°
2026-04-16 10:09 -13.17290 60.93833 35944 ft 469 kts 249°
2026-04-16 10:09 -13.20070 60.87790 35944 ft 468 kts 249°
2026-04-16 10:10 -13.22833 60.81781 35923 ft 469 kts 249°
2026-04-16 10:10 -13.25615 60.75732 35919 ft 469 kts 249°
2026-04-16 10:11 -13.28395 60.69679 35916 ft 469 kts 249°
2026-04-16 10:11 -13.31178 60.63616 35916 ft 469 kts 249°
2026-04-16 10:12 -13.33956 60.57557 35917 ft 469 kts 249°
2026-04-16 10:12 -13.36731 60.51500 35917 ft 469 kts 249°
2026-04-16 10:13 -13.39492 60.45477 35916 ft 469 kts 249°
2026-04-16 10:13 -13.42268 60.39407 35918 ft 469 kts 249°
2026-04-16 10:14 -13.45041 60.33338 35917 ft 469 kts 249°
2026-04-16 10:14 -13.47817 60.27263 35917 ft 469 kts 249°
2026-04-16 10:15 -13.50595 60.21182 35918 ft 469 kts 249°
2026-04-16 10:15 -13.53344 60.15149 35915 ft 469 kts 249°
2026-04-16 10:16 -13.56115 60.09072 35917 ft 469 kts 249°
2026-04-16 10:16 -13.58885 60.02995 35916 ft 469 kts 249°
2026-04-16 10:17 -13.61648 59.96921 35916 ft 469 kts 249°
2026-04-16 10:17 -13.64408 59.90853 35917 ft 469 kts 249°
2026-04-16 10:18 -13.67152 59.84812 35917 ft 469 kts 249°
2026-04-16 10:18 -13.69910 59.78740 35918 ft 469 kts 249°
2026-04-16 10:19 -13.72668 59.72664 35916 ft 468 kts 249°
2026-04-16 10:19 -13.75422 59.66585 35917 ft 468 kts 249°
2026-04-16 10:20 -13.78174 59.60509 35918 ft 468 kts 249°
2026-04-16 10:20 -13.80909 59.54466 35917 ft 468 kts 249°
2026-04-16 10:21 -13.83659 59.48388 35916 ft 469 kts 249°
2026-04-16 10:21 -13.86409 59.42304 35917 ft 469 kts 249°
2026-04-16 10:22 -13.89160 59.36215 35917 ft 469 kts 249°
2026-04-16 10:22 -13.91904 59.30124 35918 ft 469 kts 249°
2026-04-16 10:23 -13.94636 59.24067 35915 ft 469 kts 249°
2026-04-16 10:23 -13.97385 59.17969 35917 ft 469 kts 249°
2026-04-16 10:24 -14.00132 59.11869 35923 ft 470 kts 249°
2026-04-16 10:24 -14.02880 59.05757 35934 ft 470 kts 249°
2026-04-16 10:25 -14.05628 58.99641 35938 ft 471 kts 249°
2026-04-16 10:25 -14.08384 58.93503 35938 ft 472 kts 249°
2026-04-16 10:26 -14.11124 58.87398 35932 ft 473 kts 249°
2026-04-16 10:26 -14.13884 58.81243 35935 ft 473 kts 249°
2026-04-16 10:27 -14.16642 58.75090 35935 ft 473 kts 249°
2026-04-16 10:27 -14.19396 58.68933 35935 ft 473 kts 249°
2026-04-16 10:28 -14.22151 58.62770 35935 ft 473 kts 249°
2026-04-16 10:28 -14.24890 58.56643 35934 ft 473 kts 249°
2026-04-16 10:29 -14.27638 58.50488 35936 ft 472 kts 249°
2026-04-16 10:29 -14.30384 58.44336 35935 ft 473 kts 249°
2026-04-16 10:30 -14.33128 58.38178 35934 ft 472 kts 249°
2026-04-16 10:30 -14.35870 58.32023 35936 ft 472 kts 249°
2026-04-16 10:31 -14.38609 58.25864 35935 ft 472 kts 250°
2026-04-16 10:31 -14.41346 58.19709 35935 ft 472 kts 249°
2026-04-16 10:32 -14.44080 58.13560 35934 ft 471 kts 249°
2026-04-16 10:32 -14.46791 58.07453 35935 ft 471 kts 250°
2026-04-16 10:33 -14.49521 58.01295 35935 ft 472 kts 250°
2026-04-16 10:33 -14.52253 57.95133 35934 ft 472 kts 249°
2026-04-16 10:34 -14.54982 57.88967 35935 ft 472 kts 249°
2026-04-16 10:34 -14.57714 57.82793 35934 ft 473 kts 249°
2026-04-16 10:35 -14.60445 57.76614 35938 ft 473 kts 249°
2026-04-16 10:35 -14.63179 57.70425 35934 ft 474 kts 249°
2026-04-16 10:36 -14.65914 57.64230 35936 ft 474 kts 249°
2026-04-16 10:36 -14.68633 57.58062 35925 ft 475 kts 249°
2026-04-16 10:37 -14.71371 57.51849 35927 ft 475 kts 249°
2026-04-16 10:37 -14.74107 57.45630 35926 ft 475 kts 249°
2026-04-16 10:38 -14.76848 57.39405 35925 ft 475 kts 249°
2026-04-16 10:38 -14.79562 57.33226 35927 ft 475 kts 249°
2026-04-16 10:39 -14.82297 57.26995 35925 ft 476 kts 249°
2026-04-16 10:39 -14.85033 57.20758 35926 ft 476 kts 249°
2026-04-16 10:40 -14.87768 57.14520 35925 ft 476 kts 249°
2026-04-16 10:40 -14.90502 57.08277 35926 ft 476 kts 249°
2026-04-16 10:41 -14.93214 57.02075 35925 ft 477 kts 249°
2026-04-16 10:41 -14.95946 56.95828 35928 ft 477 kts 249°
2026-04-16 10:42 -14.98678 56.89570 35924 ft 477 kts 249°
2026-04-16 10:42 -15.01404 56.83324 35926 ft 477 kts 249°
2026-04-16 10:43 -15.04135 56.77063 35924 ft 477 kts 249°
2026-04-16 10:43 -15.06868 56.70792 35928 ft 477 kts 249°
2026-04-16 10:44 -15.09578 56.64569 35924 ft 477 kts 249°
2026-04-16 10:44 -15.12300 56.58298 35927 ft 477 kts 249°
2026-04-16 10:45 -15.15024 56.52027 35925 ft 478 kts 249°
2026-04-16 10:45 -15.17749 56.45755 35925 ft 478 kts 249°
2026-04-16 10:46 -15.20473 56.39469 35926 ft 478 kts 249°
2026-04-16 10:46 -15.23177 56.33225 35927 ft 479 kts 249°
2026-04-16 10:47 -15.25901 56.26935 35925 ft 479 kts 249°
2026-04-16 10:47 -15.28628 56.20633 35927 ft 478 kts 249°
2026-04-16 10:48 -15.31348 56.14339 35925 ft 478 kts 249°
2026-04-16 10:48 -15.34047 56.08084 35928 ft 479 kts 249°
2026-04-16 10:49 -15.36764 56.01784 35926 ft 479 kts 249°
2026-04-16 10:49 -15.39476 55.95484 35926 ft 479 kts 248°
2026-04-16 10:50 -15.42194 55.89171 35928 ft 480 kts 248°
2026-04-16 10:50 -15.44915 55.82849 35928 ft 480 kts 248°
2026-04-16 10:51 -15.47634 55.76524 35926 ft 480 kts 248°
2026-04-16 10:51 -15.50332 55.70240 35924 ft 480 kts 248°
2026-04-16 10:52 -15.53044 55.63911 35927 ft 480 kts 248°
2026-04-16 10:52 -15.55756 55.57583 35926 ft 480 kts 248°
2026-04-16 10:53 -15.58467 55.51250 35927 ft 480 kts 248°
2026-04-16 10:53 -15.61061 55.44876 35924 ft 479 kts 250°
2026-04-16 10:54 -15.63488 55.38441 35925 ft 478 kts 251°
2026-04-16 10:54 -15.65893 55.32062 35928 ft 478 kts 251°
2026-04-16 10:55 -15.68336 55.25631 35926 ft 479 kts 250°
2026-04-16 10:55 -15.70797 55.19200 35926 ft 480 kts 250°
2026-04-16 10:56 -15.73257 55.12762 35925 ft 480 kts 250°
2026-04-16 10:56 -15.75716 55.06317 35926 ft 480 kts 250°
2026-04-16 10:57 -15.78169 54.99883 35926 ft 480 kts 250°
2026-04-16 10:57 -15.80604 54.93482 35926 ft 480 kts 250°
2026-04-16 10:58 -15.83055 54.87033 35925 ft 480 kts 250°
2026-04-16 10:58 -15.85510 54.80578 35926 ft 480 kts 250°
2026-04-16 10:59 -15.87960 54.74127 35926 ft 480 kts 250°
2026-04-16 10:59 -15.90408 54.67664 35926 ft 480 kts 250°
2026-04-16 11:00 -15.92856 54.61200 35926 ft 481 kts 250°
2026-04-16 11:00 -15.95288 54.54771 35927 ft 482 kts 250°
2026-04-16 11:01 -15.97739 54.48278 35925 ft 482 kts 250°
2026-04-16 11:01 -16.00175 54.41787 35927 ft 483 kts 250°
2026-04-16 11:02 -16.02614 54.35280 35924 ft 483 kts 250°
2026-04-16 11:02 -16.05057 54.28763 35928 ft 484 kts 250°
2026-04-16 11:03 -16.07502 54.22234 35927 ft 484 kts 250°
2026-04-16 11:04 -16.11162 54.12438 35924 ft 485 kts 250°
2026-04-16 11:04 -16.13588 54.05940 35926 ft 485 kts 250°
2026-04-16 11:05 -16.16030 53.99397 35924 ft 484 kts 250°
2026-04-16 11:05 -16.18462 53.92862 35926 ft 484 kts 250°
2026-04-16 11:06 -16.20481 53.87434 35926 ft 484 kts 250°
2026-04-16 11:06 -16.23307 53.79834 35924 ft 484 kts 250°
2026-04-16 11:07 -16.25341 53.74358 35926 ft 484 kts 250°
2026-04-16 11:07 -16.27748 53.67873 35926 ft 483 kts 250°
2026-04-16 11:08 -16.30168 53.61342 35929 ft 483 kts 250°
2026-04-16 11:08 -16.32584 53.54816 35926 ft 483 kts 250°
2026-04-16 11:09 -16.34997 53.48285 35926 ft 483 kts 250°
2026-04-16 11:09 -16.37412 53.41747 35925 ft 484 kts 250°
2026-04-16 11:10 -16.39837 53.35258 35926 ft 484 kts 248°
2026-04-16 11:10 -16.42642 53.28891 35926 ft 484 kts 245°
2026-04-16 11:11 -16.45535 53.22557 35925 ft 484 kts 245°
2026-04-16 11:11 -16.48409 53.16214 35926 ft 484 kts 245°
2026-04-16 11:12 -16.51265 53.09854 35929 ft 484 kts 245°
2026-04-16 11:12 -16.54109 53.03495 35922 ft 484 kts 245°
2026-04-16 11:13 -16.56954 52.97135 35925 ft 484 kts 245°
2026-04-16 11:13 -16.59779 52.90817 35927 ft 484 kts 245°
2026-04-16 11:14 -16.62620 52.84454 35925 ft 484 kts 245°
2026-04-16 11:14 -16.65457 52.78093 35926 ft 483 kts 245°
2026-04-16 11:15 -16.68290 52.71738 35924 ft 484 kts 245°
2026-04-16 11:15 -16.71128 52.65361 35927 ft 484 kts 245°
2026-04-16 11:16 -16.73961 52.58988 35926 ft 484 kts 245°
2026-04-16 11:16 -16.76794 52.52612 35926 ft 484 kts 245°
2026-04-16 11:17 -16.79602 52.46282 35926 ft 484 kts 245°
2026-04-16 11:17 -16.82428 52.39910 35926 ft 484 kts 245°
2026-04-16 11:18 -16.85251 52.33535 35922 ft 483 kts 245°
2026-04-16 11:18 -16.88072 52.27164 35928 ft 483 kts 245°
2026-04-16 11:19 -16.90891 52.20791 35926 ft 484 kts 245°
2026-04-16 11:19 -16.93713 52.14409 35925 ft 483 kts 245°
2026-04-16 11:20 -16.96507 52.08070 35927 ft 483 kts 245°
2026-04-16 11:20 -16.99318 52.01694 35934 ft 483 kts 245°
2026-04-16 11:21 -17.02127 51.95314 35933 ft 483 kts 245°
2026-04-16 11:21 -17.04938 51.88927 35931 ft 484 kts 245°
2026-04-16 11:22 -17.07751 51.82530 35934 ft 483 kts 245°
2026-04-16 11:22 -17.10537 51.76189 35935 ft 483 kts 245°
2026-04-16 11:23 -17.13336 51.69801 35935 ft 483 kts 245°
2026-04-16 11:23 -17.16133 51.63414 35935 ft 483 kts 245°
2026-04-16 11:24 -17.18932 51.57021 35935 ft 483 kts 245°
2026-04-16 11:24 -17.21723 51.50636 35936 ft 482 kts 245°
2026-04-16 11:25 -17.24517 51.44251 35920 ft 483 kts 246°
2026-04-16 11:25 -17.27306 51.37853 35928 ft 483 kts 246°
2026-04-16 11:26 -17.30093 51.31455 35926 ft 483 kts 246°
2026-04-16 11:26 -17.32864 51.25090 35933 ft 484 kts 246°
2026-04-16 11:27 -17.35655 51.18676 35933 ft 484 kts 246°
2026-04-16 11:27 -17.38443 51.12257 35934 ft 484 kts 246°
2026-04-16 11:28 -17.41232 51.05832 35936 ft 484 kts 246°
2026-04-16 11:28 -17.44021 50.99403 35935 ft 485 kts 246°
2026-04-16 11:29 -17.46785 50.93018 35935 ft 484 kts 246°
2026-04-16 11:29 -17.49569 50.86585 35937 ft 484 kts 246°
2026-04-16 11:30 -17.52345 50.80166 35934 ft 484 kts 246°
2026-04-16 11:30 -17.55116 50.73745 35935 ft 483 kts 246°
2026-04-16 11:31 -17.57884 50.67325 35936 ft 482 kts 246°
2026-04-16 11:31 -17.60626 50.60962 35935 ft 482 kts 246°
2026-04-16 11:32 -17.63387 50.54546 35935 ft 483 kts 246°
2026-04-16 11:32 -17.66154 50.48113 35933 ft 483 kts 246°
2026-04-16 11:33 -17.68896 50.41723 35937 ft 484 kts 246°
2026-04-16 11:33 -17.71656 50.35286 35936 ft 484 kts 246°
2026-04-16 11:34 -17.74415 50.28849 35935 ft 483 kts 246°
2026-04-16 11:34 -17.77171 50.22413 35935 ft 483 kts 246°
2026-04-16 11:35 -17.79919 50.15983 35937 ft 483 kts 246°
2026-04-16 11:35 -17.82650 50.09591 35934 ft 482 kts 246°
2026-04-16 11:36 -17.85389 50.03167 35936 ft 482 kts 246°
2026-04-16 11:36 -17.88132 49.96738 35937 ft 482 kts 246°
2026-04-16 11:37 -17.90868 49.90309 35934 ft 482 kts 246°
2026-04-16 11:37 -17.93606 49.83870 35935 ft 482 kts 246°
2026-04-16 11:38 -17.96324 49.77477 35934 ft 482 kts 246°
2026-04-16 11:38 -17.99059 49.71031 35937 ft 482 kts 246°
2026-04-16 11:39 -18.01783 49.64603 35933 ft 482 kts 246°
2026-04-16 11:39 -18.04511 49.58163 35936 ft 482 kts 246°
2026-04-16 11:40 -18.07234 49.51722 35937 ft 482 kts 246°
2026-04-16 11:40 -18.09938 49.45316 35933 ft 482 kts 246°
2026-04-16 11:41 -18.12663 49.38865 35936 ft 482 kts 246°
2026-04-16 11:41 -18.15157 49.32317 35934 ft 483 kts 249°
2026-04-16 11:42 -18.17514 49.25706 35941 ft 483 kts 249°
2026-04-16 11:42 -18.19898 49.19105 35946 ft 483 kts 249°
2026-04-16 11:43 -18.22307 49.12521 35945 ft 483 kts 249°
2026-04-16 11:43 -18.24726 49.05925 35944 ft 483 kts 249°
2026-04-16 11:44 -18.27140 48.99336 35945 ft 482 kts 249°
2026-04-16 11:44 -18.29532 48.92787 35945 ft 482 kts 249°
2026-04-16 11:45 -18.31930 48.86213 35955 ft 482 kts 249°
2026-04-16 11:45 -18.34332 48.79624 35954 ft 481 kts 249°
2026-04-16 11:46 -18.36730 48.73040 35965 ft 481 kts 249°
2026-04-16 11:46 -18.39123 48.66457 35965 ft 481 kts 249°
2026-04-16 11:47 -18.41514 48.59879 35973 ft 481 kts 249°
2026-04-16 11:47 -18.43906 48.53285 35983 ft 482 kts 249°
2026-04-16 11:48 -18.46294 48.46698 35994 ft 482 kts 249°
2026-04-16 11:48 -18.48675 48.40125 35999 ft 482 kts 249°
2026-04-16 11:49 -18.51063 48.33516 36010 ft 482 kts 249°
2026-04-16 11:49 -18.53449 48.26906 36015 ft 482 kts 249°
2026-04-16 11:50 -18.55829 48.20299 36023 ft 483 kts 249°
2026-04-16 11:50 -18.58189 48.13751 36078 ft 485 kts 249°
2026-04-16 11:50 -18.59396 48.10399 36356 ft 486 kts 249°
2026-04-16 11:51 -18.60595 48.07067 36764 ft 484 kts 249°
2026-04-16 11:51 -18.61780 48.03770 37398 ft 477 kts 249°
2026-04-16 11:51 -18.62942 48.00538 37967 ft 472 kts 249°
2026-04-16 11:52 -18.65273 47.94041 38056 ft 470 kts 249°
2026-04-16 11:52 -18.67572 47.87622 38055 ft 465 kts 249°
2026-04-16 11:53 -18.69836 47.81295 38065 ft 464 kts 249°
2026-04-16 11:53 -18.72131 47.74878 38067 ft 464 kts 249°
2026-04-16 11:54 -18.74388 47.68558 38076 ft 464 kts 249°
2026-04-16 11:54 -18.76661 47.62182 38074 ft 465 kts 249°
2026-04-16 11:55 -18.78939 47.55788 38076 ft 466 kts 249°
2026-04-16 11:55 -18.81397 47.49474 38078 ft 466 kts 244°
2026-04-16 11:56 -18.84335 47.43333 38074 ft 467 kts 243°
2026-04-16 11:56 -18.87294 47.37216 38074 ft 468 kts 243°
2026-04-16 11:57 -18.90231 47.31079 38073 ft 468 kts 243°
2026-04-16 11:57 -18.93150 47.24935 38074 ft 468 kts 244°
2026-04-16 11:58 -18.96044 47.18829 38073 ft 468 kts 244°
2026-04-16 11:58 -18.98958 47.12674 38072 ft 467 kts 244°
2026-04-16 11:59 -19.01865 47.06533 38074 ft 467 kts 244°
2026-04-16 11:59 -19.04774 47.00385 38073 ft 467 kts 244°
2026-04-16 12:00 -19.07676 46.94241 38074 ft 467 kts 244°
2026-04-16 12:00 -19.10555 46.88139 38066 ft 467 kts 244°
2026-04-16 12:01 -19.13449 46.82000 38065 ft 467 kts 244°
2026-04-16 12:01 -19.16345 46.75845 38065 ft 467 kts 244°
2026-04-16 12:02 -19.20689 46.66606 38062 ft 467 kts 244°
2026-04-16 12:02 -19.23581 46.60447 38055 ft 467 kts 244°
2026-04-16 12:03 -19.25982 46.55330 38055 ft 467 kts 244°
2026-04-16 12:03 -19.29339 46.48169 38055 ft 467 kts 244°
2026-04-16 12:04 -19.32221 46.42010 38049 ft 467 kts 244°
2026-04-16 12:04 -19.34633 46.36851 38043 ft 466 kts 244°
2026-04-16 12:05 -19.37504 46.30700 38052 ft 466 kts 244°
2026-04-16 12:05 -19.40357 46.24581 38055 ft 466 kts 244°
2026-04-16 12:06 -19.43226 46.18427 38053 ft 467 kts 244°
2026-04-16 12:06 -19.46114 46.12226 38048 ft 468 kts 244°
2026-04-16 12:07 -19.48995 46.06033 38047 ft 469 kts 244°
2026-04-16 12:07 -19.51855 45.99873 38044 ft 469 kts 244°
2026-04-16 12:08 -19.54735 45.93672 38036 ft 469 kts 244°
2026-04-16 12:08 -19.57612 45.87465 38038 ft 469 kts 244°
2026-04-16 12:09 -19.60482 45.81263 38036 ft 468 kts 244°
2026-04-16 12:09 -19.63346 45.75068 38024 ft 468 kts 244°
2026-04-16 12:10 -19.66208 45.68873 38031 ft 467 kts 244°
2026-04-16 12:10 -19.69050 45.62722 38020 ft 468 kts 245°
2026-04-16 12:11 -19.71909 45.56515 38021 ft 468 kts 245°
2026-04-16 12:11 -19.74772 45.50296 38021 ft 469 kts 245°
2026-04-16 12:12 -19.77633 45.44075 38019 ft 469 kts 245°
2026-04-16 12:12 -19.80496 45.37844 38018 ft 469 kts 245°
2026-04-16 12:13 -19.83358 45.31609 38011 ft 470 kts 245°
2026-04-16 12:13 -19.86196 45.25413 38004 ft 469 kts 245°
2026-04-16 12:14 -19.89050 45.19181 38004 ft 468 kts 245°
2026-04-16 12:14 -19.91889 45.12977 38000 ft 467 kts 245°
2026-04-16 12:15 -19.94726 45.06769 37999 ft 465 kts 244°
2026-04-16 12:15 -19.97549 45.00588 38001 ft 464 kts 244°
2026-04-16 12:16 -20.00344 44.94459 37989 ft 464 kts 244°
2026-04-16 12:16 -20.03155 44.88291 37987 ft 464 kts 245°
2026-04-16 12:17 -20.05966 44.82111 37991 ft 464 kts 245°
2026-04-16 12:17 -20.08772 44.75928 37982 ft 464 kts 245°
2026-04-16 12:18 -20.11577 44.69744 37984 ft 464 kts 245°
2026-04-16 12:18 -20.14382 44.63560 37980 ft 464 kts 245°
2026-04-16 12:19 -20.17167 44.57410 37977 ft 464 kts 245°
2026-04-16 12:19 -20.19962 44.51230 37970 ft 463 kts 245°
2026-04-16 12:20 -20.22756 44.45040 37979 ft 463 kts 245°
2026-04-16 12:20 -20.25547 44.38860 37961 ft 463 kts 245°
2026-04-16 12:21 -20.28333 44.32683 37957 ft 463 kts 244°
2026-04-16 12:21 -20.31382 44.26649 37966 ft 462 kts 241°
2026-04-16 12:22 -20.34574 44.20708 37958 ft 462 kts 240°
2026-04-16 12:22 -20.37746 44.14800 37957 ft 462 kts 241°
2026-04-16 12:23 -20.40920 44.08842 37953 ft 462 kts 241°
2026-04-16 12:23 -20.44077 44.02883 37953 ft 462 kts 241°
2026-04-16 12:24 -20.47230 43.96922 37957 ft 462 kts 241°
2026-04-16 12:24 -20.50386 43.90951 37949 ft 462 kts 241°
2026-04-16 12:25 -20.53538 43.84980 37943 ft 461 kts 241°
2026-04-16 12:25 -20.56684 43.79015 37938 ft 461 kts 241°
2026-04-16 12:26 -20.59829 43.73046 37949 ft 461 kts 241°
2026-04-16 12:26 -20.62952 43.67117 37941 ft 461 kts 241°
2026-04-16 12:27 -20.66088 43.61148 37949 ft 461 kts 241°
2026-04-16 12:27 -20.69240 43.55152 38126 ft 465 kts 241°
2026-04-16 12:28 -20.70815 43.52149 38543 ft 462 kts 241°
2026-04-16 12:28 -20.72382 43.49160 38975 ft 459 kts 241°
2026-04-16 12:28 -20.73937 43.46193 39333 ft 458 kts 241°
2026-04-16 12:28 -20.75491 43.43226 39600 ft 458 kts 241°
2026-04-16 12:29 -20.77047 43.40254 39851 ft 458 kts 241°
2026-04-16 12:29 -20.78609 43.37271 39881 ft 461 kts 241°
2026-04-16 12:29 -20.81738 43.31288 39923 ft 460 kts 241°
2026-04-16 12:30 -20.84850 43.25332 39932 ft 457 kts 241°
2026-04-16 12:30 -20.87922 43.19451 39935 ft 455 kts 241°
2026-04-16 12:31 -20.91002 43.13538 39935 ft 454 kts 241°
2026-04-16 12:31 -20.94074 43.07642 39933 ft 454 kts 241°
2026-04-16 12:32 -20.97148 43.01737 39926 ft 454 kts 241°
2026-04-16 12:32 -21.00217 42.95830 39932 ft 455 kts 241°
2026-04-16 12:33 -21.03283 42.89923 39935 ft 455 kts 241°
2026-04-16 12:33 -21.06357 42.83993 39936 ft 456 kts 241°
2026-04-16 12:34 -21.09435 42.78052 39933 ft 456 kts 241°
2026-04-16 12:34 -21.12510 42.72108 39927 ft 457 kts 241°
2026-04-16 12:35 -21.15588 42.66148 39924 ft 457 kts 241°
2026-04-16 12:35 -21.18662 42.60192 39925 ft 457 kts 241°
2026-04-16 12:36 -21.21738 42.54230 39926 ft 457 kts 241°
2026-04-16 12:36 -21.24812 42.48267 39928 ft 457 kts 241°
2026-04-16 12:37 -21.27877 42.42303 39925 ft 457 kts 241°
2026-04-16 12:37 -21.30943 42.36339 39925 ft 456 kts 241°
2026-04-16 12:38 -21.33983 42.30424 39926 ft 456 kts 241°
2026-04-16 12:38 -21.37039 42.24467 39927 ft 456 kts 241°
2026-04-16 12:39 -21.40093 42.18503 39924 ft 456 kts 241°
2026-04-16 12:39 -21.43143 42.12542 39925 ft 456 kts 241°
2026-04-16 12:40 -21.46189 42.06584 39923 ft 455 kts 241°
2026-04-16 12:40 -21.49232 42.00624 39925 ft 455 kts 241°
2026-04-16 12:41 -21.52269 41.94670 39926 ft 454 kts 241°
2026-04-16 12:41 -21.55301 41.88719 39927 ft 454 kts 241°
2026-04-16 12:42 -21.58331 41.82766 39926 ft 454 kts 241°
2026-04-16 12:42 -21.61342 41.76846 39928 ft 454 kts 241°
2026-04-16 12:43 -21.64368 41.70886 39921 ft 455 kts 241°
2026-04-16 12:43 -21.67393 41.64918 39931 ft 455 kts 241°
2026-04-16 12:44 -21.70356 41.59067 39928 ft 455 kts 241°
2026-04-16 12:44 -21.73416 41.53022 39925 ft 455 kts 241°
2026-04-16 12:45 -21.76402 41.47116 39925 ft 455 kts 241°
2026-04-16 12:45 -21.79413 41.41152 39927 ft 455 kts 241°
2026-04-16 12:46 -21.82434 41.35162 39925 ft 455 kts 241°
2026-04-16 12:46 -21.85456 41.29162 39923 ft 455 kts 241°
2026-04-16 12:47 -21.88451 41.23212 39925 ft 455 kts 241°
2026-04-16 12:47 -21.91470 41.17206 39927 ft 455 kts 241°
2026-04-16 12:48 -21.94485 41.11201 39924 ft 455 kts 241°
2026-04-16 12:48 -21.97496 41.05198 39928 ft 455 kts 241°
2026-04-16 12:49 -22.00505 40.99192 39927 ft 455 kts 241°
2026-04-16 12:49 -22.03509 40.93187 39930 ft 455 kts 242°
2026-04-16 12:50 -22.06495 40.87206 39938 ft 456 kts 242°
2026-04-16 12:50 -22.09502 40.81184 39934 ft 456 kts 242°
2026-04-16 12:51 -22.12509 40.75155 39937 ft 456 kts 242°
2026-04-16 12:51 -22.15512 40.69125 39934 ft 456 kts 242°
2026-04-16 12:52 -22.18512 40.63095 39935 ft 457 kts 242°
2026-04-16 12:52 -22.21511 40.57058 39938 ft 457 kts 242°
2026-04-16 12:53 -22.24491 40.51048 39944 ft 457 kts 242°
2026-04-16 12:53 -22.27488 40.45000 39935 ft 457 kts 242°
2026-04-16 12:54 -22.30488 40.38936 39929 ft 457 kts 242°
2026-04-16 12:54 -22.33483 40.32877 39927 ft 457 kts 242°
2026-04-16 12:55 -22.36454 40.26858 39927 ft 457 kts 242°
2026-04-16 12:55 -22.39447 40.20789 39934 ft 457 kts 242°
2026-04-16 12:56 -22.42436 40.14718 39937 ft 457 kts 242°
2026-04-16 12:56 -22.45419 40.08653 39933 ft 457 kts 242°
2026-04-16 12:57 -22.48404 40.02575 39937 ft 457 kts 242°
2026-04-16 12:57 -22.51364 39.96546 39937 ft 457 kts 242°
2026-04-16 12:58 -22.54342 39.90471 39936 ft 457 kts 242°
2026-04-16 12:58 -22.57320 39.84396 39935 ft 457 kts 242°
2026-04-16 12:59 -22.60300 39.78308 39936 ft 457 kts 242°
2026-04-16 13:00 -22.64736 39.69226 39942 ft 457 kts 242°
2026-04-16 13:00 -22.67706 39.63136 39943 ft 457 kts 242°
2026-04-16 13:01 -22.70669 39.57053 39945 ft 457 kts 242°
2026-04-16 13:01 -22.73629 39.50967 39947 ft 457 kts 242°
2026-04-16 13:02 -22.76574 39.44909 39944 ft 457 kts 242°
2026-04-16 13:02 -22.79529 39.38818 39945 ft 457 kts 242°
2026-04-16 13:03 -22.82487 39.32716 39944 ft 457 kts 242°
2026-04-16 13:03 -22.85442 39.26615 39956 ft 457 kts 242°
2026-04-16 13:04 -22.88399 39.20498 39950 ft 457 kts 242°
2026-04-16 13:04 -22.91334 39.14419 39954 ft 458 kts 242°
2026-04-16 13:05 -22.94283 39.08302 39954 ft 458 kts 242°
2026-04-16 13:05 -22.97234 39.02182 39956 ft 458 kts 242°
2026-04-16 13:06 -22.99688 38.97083 39951 ft 458 kts 242°
2026-04-16 13:06 -23.02633 38.90956 39962 ft 458 kts 242°
2026-04-16 13:07 -23.05581 38.84817 39962 ft 458 kts 242°
2026-04-16 13:07 -23.08522 38.78685 39962 ft 458 kts 242°
2026-04-16 13:08 -23.11461 38.72548 39964 ft 458 kts 242°
2026-04-16 13:08 -23.14384 38.66434 39962 ft 458 kts 242°
2026-04-16 13:09 -23.17323 38.60284 39960 ft 459 kts 242°
2026-04-16 13:09 -23.20261 38.54127 39960 ft 459 kts 242°
2026-04-16 13:10 -23.23197 38.47967 39966 ft 459 kts 242°
2026-04-16 13:10 -23.26135 38.41793 39966 ft 459 kts 242°
2026-04-16 13:11 -23.29067 38.35626 39965 ft 459 kts 242°
2026-04-16 13:11 -23.31994 38.29459 39964 ft 459 kts 242°
2026-04-16 13:12 -23.34923 38.23282 39973 ft 459 kts 242°
2026-04-16 13:12 -23.37826 38.17151 39978 ft 459 kts 242°
2026-04-16 13:13 -23.40749 38.10969 39968 ft 459 kts 242°
2026-04-16 13:13 -23.43670 38.04786 39970 ft 460 kts 242°
2026-04-16 13:14 -23.46589 37.98596 39965 ft 460 kts 242°
2026-04-16 13:14 -23.49512 37.92393 39970 ft 460 kts 242°
2026-04-16 13:15 -23.52426 37.86200 39980 ft 460 kts 242°
2026-04-16 13:15 -23.55324 37.80033 39979 ft 460 kts 242°
2026-04-16 13:16 -23.58235 37.73832 39967 ft 460 kts 242°
2026-04-16 13:16 -23.61142 37.67628 39970 ft 460 kts 242°
2026-04-16 13:17 -23.64053 37.61409 39967 ft 460 kts 243°
2026-04-16 13:17 -23.66958 37.55195 39972 ft 460 kts 243°
2026-04-16 13:18 -23.69861 37.48977 39985 ft 460 kts 243°
2026-04-16 13:18 -23.72748 37.42788 39981 ft 460 kts 243°
2026-04-16 13:19 -23.75650 37.36557 39983 ft 460 kts 243°
2026-04-16 13:19 -23.78544 37.30332 39986 ft 460 kts 243°
2026-04-16 13:20 -23.81417 37.24148 39986 ft 460 kts 243°
2026-04-16 13:20 -23.84262 37.18012 39978 ft 460 kts 243°
2026-04-16 13:21 -23.87106 37.11873 39982 ft 460 kts 243°
2026-04-16 13:21 -23.89989 37.05643 39985 ft 459 kts 243°
2026-04-16 13:22 -23.92854 36.99441 39990 ft 460 kts 243°
2026-04-16 13:22 -23.95731 36.93205 39988 ft 460 kts 243°
2026-04-16 13:23 -23.98610 36.86958 39992 ft 459 kts 243°
2026-04-16 13:23 -24.01480 36.80720 39991 ft 459 kts 243°
2026-04-16 13:24 -24.04343 36.74489 39997 ft 459 kts 243°
2026-04-16 13:24 -24.07194 36.68299 40000 ft 459 kts 243°
2026-04-16 13:25 -24.10069 36.62067 40001 ft 459 kts 243°
2026-04-16 13:25 -24.12942 36.55826 39998 ft 459 kts 243°
2026-04-16 13:26 -24.15809 36.49588 39999 ft 458 kts 243°
2026-04-16 13:26 -24.18658 36.43382 39998 ft 458 kts 243°
2026-04-16 13:27 -24.21468 36.37250 39998 ft 458 kts 243°
2026-04-16 13:27 -24.24295 36.31072 39998 ft 458 kts 243°
2026-04-16 13:28 -24.27105 36.24921 40001 ft 458 kts 243°
2026-04-16 13:28 -24.29959 36.18670 40001 ft 458 kts 244°
2026-04-16 13:29 -24.32804 36.12428 39999 ft 458 kts 244°
2026-04-16 13:29 -24.35634 36.06211 40001 ft 458 kts 244°
2026-04-16 13:30 -24.38477 35.99958 40003 ft 458 kts 244°
2026-04-16 13:30 -24.41323 35.93691 40000 ft 459 kts 244°
2026-04-16 13:31 -24.44165 35.87422 40003 ft 462 kts 244°
2026-04-16 13:31 -24.47051 35.81046 40010 ft 470 kts 244°
2026-04-16 13:32 -24.49972 35.74587 40011 ft 471 kts 244°
2026-04-16 13:32 -24.52876 35.68167 40002 ft 477 kts 244°
2026-04-16 13:33 -24.55848 35.61575 40010 ft 486 kts 244°
2026-04-16 13:33 -24.58828 35.54954 39995 ft 471 kts 246°
2026-04-16 13:34 -24.61784 35.48386 39145 ft 503 kts 250°
2026-04-16 13:34 -24.63353 35.44845 38628 ft 525 kts 250°
2026-04-16 13:34 -24.64969 35.41219 38753 ft 528 kts 250°
2026-04-16 13:34 -24.66597 35.37593 39026 ft 529 kts 250°
2026-04-16 13:35 -24.68229 35.33963 39265 ft 530 kts 250°
2026-04-16 13:35 -24.69841 35.30378 39509 ft 530 kts 250°
2026-04-16 13:35 -24.71479 35.26726 39602 ft 534 kts 250°
2026-04-16 13:35 -24.73135 35.23038 39467 ft 544 kts 248°
2026-04-16 13:36 -24.74821 35.19286 39579 ft 546 kts 250°
2026-04-16 13:36 -24.76492 35.15544 39794 ft 547 kts 250°
2026-04-16 13:36 -24.78179 35.11756 39881 ft 553 kts 249°
2026-04-16 13:37 -24.81594 35.04051 40010 ft 567 kts 250°
2026-04-16 13:37 -24.85110 34.96126 40031 ft 585 kts 249°
2026-04-16 13:38 -24.88719 34.87989 40021 ft 603 kts 249°
2026-04-16 13:38 -24.92445 34.79572 40021 ft 619 kts 249°
2026-04-16 13:39 -24.96261 34.70945 40018 ft 632 kts 249°
2026-04-16 13:39 -25.00142 34.62155 40011 ft 639 kts 249°
2026-04-16 13:40 -25.04028 34.53338 39998 ft 639 kts 249°
2026-04-16 13:40 -25.07899 34.44531 39993 ft 638 kts 249°
2026-04-16 13:41 -25.11733 34.35787 39996 ft 636 kts 249°
2026-04-16 13:41 -25.15575 34.27007 40000 ft 635 kts 249°
2026-04-16 13:42 -25.19405 34.18236 40000 ft 633 kts 249°
2026-04-16 13:42 -25.23221 34.09479 40000 ft 632 kts 249°
2026-04-16 13:43 -25.27027 34.00727 40000 ft 632 kts 249°
2026-04-16 13:43 -25.30812 33.92008 40003 ft 631 kts 249°
2026-04-16 13:44 -25.34597 33.83252 40000 ft 631 kts 249°
2026-04-16 13:44 -25.38374 33.74492 40000 ft 631 kts 249°
2026-04-16 13:45 -25.42151 33.65717 40002 ft 631 kts 249°
2026-04-16 13:45 -25.45920 33.56942 40000 ft 631 kts 250°
2026-04-16 13:46 -25.49665 33.48210 40004 ft 632 kts 250°
2026-04-16 13:46 -25.53430 33.39412 40001 ft 632 kts 250°
2026-04-16 13:47 -25.57191 33.30604 40000 ft 632 kts 250°
2026-04-16 13:47 -25.60946 33.21792 40003 ft 632 kts 250°
2026-04-16 13:48 -25.64695 33.12978 40002 ft 633 kts 250°
2026-04-16 13:48 -25.68443 33.04148 40003 ft 633 kts 250°
2026-04-16 13:49 -25.72179 32.95326 40000 ft 633 kts 250°
2026-04-16 13:49 -25.75893 32.86539 40002 ft 633 kts 250°
2026-04-16 13:50 -25.79619 32.77706 40003 ft 633 kts 250°
2026-04-16 13:50 -25.83347 32.68849 40000 ft 633 kts 250°
2026-04-16 13:51 -25.87093 32.60006 40005 ft 634 kts 248°
2026-04-16 13:51 -25.91370 32.51400 39992 ft 637 kts 243°
2026-04-16 13:52 -25.95821 32.42899 40000 ft 637 kts 243°
2026-04-16 13:52 -26.00198 32.34419 40003 ft 636 kts 244°
2026-04-16 13:53 -26.04555 32.25839 40002 ft 636 kts 244°
2026-04-16 13:53 -26.08904 32.17260 40002 ft 637 kts 244°
2026-04-16 13:54 -26.13394 32.08751 40003 ft 639 kts 238°
2026-04-16 13:54 -26.18611 32.00781 40009 ft 641 kts 234°
2026-04-16 13:55 -26.23995 31.92871 40004 ft 642 kts 234°
2026-04-16 13:55 -26.29305 31.84869 39998 ft 642 kts 236°
2026-04-16 13:56 -26.34563 31.76807 40001 ft 641 kts 238°
2026-04-16 13:56 -26.39070 31.68259 40004 ft 636 kts 248°
2026-04-16 13:57 -26.42385 31.59196 40007 ft 629 kts 257°
2026-04-16 13:57 -26.45344 31.50081 40006 ft 630 kts 256°
2026-04-16 13:58 -26.50252 31.36408 40005 ft 637 kts 248°
2026-04-16 13:58 -26.54667 31.27775 40005 ft 643 kts 238°
2026-04-16 13:59 -26.60024 31.19748 40002 ft 643 kts 238°
2026-04-16 13:59 -26.64500 31.11188 40000 ft 639 kts 250°
2026-04-16 14:00 -26.67752 31.02011 40003 ft 634 kts 256°
2026-04-16 14:00 -26.70873 30.92762 39998 ft 636 kts 255°
2026-04-16 14:01 -26.74124 30.83606 40008 ft 638 kts 253°
2026-04-16 14:01 -26.78046 30.74635 40005 ft 646 kts 243°
2026-04-16 14:02 -26.83023 30.66230 40007 ft 649 kts 237°
2026-04-16 14:02 -26.88184 30.57916 40004 ft 650 kts 237°
2026-04-16 14:03 -26.93293 30.49545 40002 ft 650 kts 238°
2026-04-16 14:03 -26.98340 30.41123 39997 ft 651 kts 239°
2026-04-16 14:04 -27.03333 30.32743 40007 ft 651 kts 239°
2026-04-16 14:04 -27.08367 30.24303 40007 ft 651 kts 238°
2026-04-16 14:05 -27.13401 30.15861 40000 ft 651 kts 238°
2026-04-16 14:05 -27.18444 30.07393 40000 ft 652 kts 239°
2026-04-16 14:06 -27.23480 29.98916 40003 ft 652 kts 239°
2026-04-16 14:06 -27.28510 29.90430 40003 ft 652 kts 239°
2026-04-16 14:07 -27.33465 29.82054 40002 ft 653 kts 239°
2026-04-16 14:07 -27.38532 29.73475 40002 ft 652 kts 239°
2026-04-16 14:08 -27.42739 29.66339 39995 ft 653 kts 239°
2026-04-16 14:08 -27.47722 29.57870 40006 ft 652 kts 239°
2026-04-16 14:09 -27.52719 29.49362 40006 ft 652 kts 239°
2026-04-16 14:09 -27.57717 29.40835 40002 ft 652 kts 239°
2026-04-16 14:10 -27.62706 29.32306 40000 ft 651 kts 239°
2026-04-16 14:10 -27.67689 29.23770 40004 ft 651 kts 239°
2026-04-16 14:11 -27.72668 29.15236 40001 ft 652 kts 238°
2026-04-16 14:11 -27.78335 29.07233 40009 ft 653 kts 227°
2026-04-16 14:12 -27.84853 29.00212 40002 ft 650 kts 216°
2026-04-16 14:12 -27.92025 28.94029 40000 ft 651 kts 218°
2026-04-16 14:13 -27.98199 28.86543 40007 ft 651 kts 235°
2026-04-16 14:13 -28.02866 28.77850 40005 ft 644 kts 249°
2026-04-16 14:14 -28.06733 28.68717 40006 ft 644 kts 249°
2026-04-16 14:14 -28.10719 28.59603 39999 ft 646 kts 247°
2026-04-16 14:15 -28.14793 28.50521 40005 ft 646 kts 248°
2026-04-16 14:15 -28.18808 28.41482 39997 ft 646 kts 248°
2026-04-16 14:16 -28.22839 28.32367 40008 ft 646 kts 248°
2026-04-16 14:16 -28.26871 28.23239 40004 ft 647 kts 248°
2026-04-16 14:17 -28.30892 28.14120 39996 ft 647 kts 248°
2026-04-16 14:17 -28.34892 28.05025 40002 ft 647 kts 248°
2026-04-16 14:18 -28.38903 27.95885 40012 ft 646 kts 248°
2026-04-16 14:18 -28.42904 27.86738 39999 ft 646 kts 248°
2026-04-16 14:19 -28.46895 27.77595 40008 ft 645 kts 248°
2026-04-16 14:19 -28.50873 27.68464 40008 ft 645 kts 248°
2026-04-16 14:20 -28.54847 27.59322 40005 ft 645 kts 248°
2026-04-16 14:20 -28.58793 27.50228 39996 ft 645 kts 248°
2026-04-16 14:21 -28.62757 27.41068 40005 ft 644 kts 248°
2026-04-16 14:21 -28.66714 27.31903 40001 ft 645 kts 248°
2026-04-16 14:22 -28.70662 27.22735 40000 ft 644 kts 249°
2026-04-16 14:22 -28.74596 27.13576 40002 ft 644 kts 249°
2026-04-16 14:23 -28.78500 27.04464 40000 ft 643 kts 249°
2026-04-16 14:23 -28.82186 26.95191 39984 ft 639 kts 254°
2026-04-16 14:24 -28.85422 26.85765 39999 ft 638 kts 255°
2026-04-16 14:24 -28.89007 26.76471 39998 ft 643 kts 248°
2026-04-16 14:25 -28.93168 26.67411 39998 ft 644 kts 246°
2026-04-16 14:25 -28.97355 26.58366 40002 ft 644 kts 246°
2026-04-16 14:26 -29.01434 26.49328 40003 ft 644 kts 247°
2026-04-16 14:26 -29.05512 26.40217 40004 ft 644 kts 247°
2026-04-16 14:27 -29.09936 26.31280 40006 ft 648 kts 239°
2026-04-16 14:27 -29.15406 26.23078 39999 ft 651 kts 227°
2026-04-16 14:28 -29.21584 26.15489 40001 ft 651 kts 226°
2026-04-16 14:28 -29.27786 26.07947 40001 ft 651 kts 226°
2026-04-16 14:29 -29.33902 26.00359 40002 ft 651 kts 227°
2026-04-16 14:29 -29.40000 25.92691 40003 ft 651 kts 227°
2026-04-16 14:30 -29.46092 25.85012 40002 ft 651 kts 227°
2026-04-16 14:30 -29.52210 25.77304 40002 ft 651 kts 227°
2026-04-16 14:31 -29.58271 25.69665 40002 ft 651 kts 227°
2026-04-16 14:31 -29.64363 25.61972 40002 ft 651 kts 227°
2026-04-16 14:32 -29.70456 25.54258 39999 ft 651 kts 227°
2026-04-16 14:32 -29.76539 25.46542 40000 ft 650 kts 227°
2026-04-16 14:33 -29.82615 25.38821 40004 ft 650 kts 228°
2026-04-16 14:33 -29.88655 25.31130 40002 ft 651 kts 228°
2026-04-16 14:34 -29.94727 25.23382 39999 ft 651 kts 228°
2026-04-16 14:34 -30.00798 25.15621 40002 ft 651 kts 228°
2026-04-16 14:35 -30.06855 25.07863 40002 ft 651 kts 228°
2026-04-16 14:35 -30.12924 25.00074 40007 ft 651 kts 228°
2026-04-16 14:36 -30.18936 24.92342 39997 ft 651 kts 228°
2026-04-16 14:36 -30.24979 24.84555 40004 ft 650 kts 228°
2026-04-16 14:37 -30.31009 24.76767 39999 ft 650 kts 228°
2026-04-16 14:37 -30.37050 24.68952 40004 ft 650 kts 228°
2026-04-16 14:38 -30.43096 24.61157 40000 ft 650 kts 228°
2026-04-16 14:38 -30.49146 24.53373 40004 ft 650 kts 228°
2026-04-16 14:39 -30.55205 24.45556 40002 ft 651 kts 228°
2026-04-16 14:39 -30.61201 24.37794 40001 ft 651 kts 228°
2026-04-16 14:40 -30.67245 24.29952 40004 ft 651 kts 228°
2026-04-16 14:40 -30.73280 24.22106 40003 ft 651 kts 228°
2026-04-16 14:41 -30.79311 24.14252 40007 ft 651 kts 228°
2026-04-16 14:41 -30.85344 24.06378 40002 ft 651 kts 228°
2026-04-16 14:42 -30.91321 23.98562 39999 ft 651 kts 228°
2026-04-16 14:42 -30.97337 23.90677 40000 ft 650 kts 229°
2026-04-16 14:43 -31.03345 23.82788 39998 ft 651 kts 229°
2026-04-16 14:43 -31.09358 23.74875 40000 ft 650 kts 229°
2026-04-16 14:44 -31.15223 23.67171 39941 ft 591 kts 232°
2026-04-16 14:44 -31.17798 23.63824 39994 ft 518 kts 234°
2026-04-16 14:44 -31.20062 23.60849 39922 ft 464 kts 236°
2026-04-16 14:45 -31.22136 23.58061 40026 ft 450 kts 236°
2026-04-16 14:45 -31.24184 23.55305 39950 ft 448 kts 236°
2026-04-16 14:45 -31.28268 23.49876 39934 ft 442 kts 236°
2026-04-16 14:46 -31.32323 23.44508 39924 ft 439 kts 236°
2026-04-16 14:46 -31.36375 23.39123 39940 ft 446 kts 236°
2026-04-16 14:47 -31.40485 23.33653 39933 ft 450 kts 236°
2026-04-16 14:47 -31.44623 23.28147 39923 ft 451 kts 236°
2026-04-16 14:48 -31.48769 23.22622 39913 ft 451 kts 236°
2026-04-16 14:48 -31.52903 23.17104 39914 ft 450 kts 236°
2026-04-16 14:49 -31.57025 23.11592 39921 ft 449 kts 236°
2026-04-16 14:49 -31.61135 23.06089 39914 ft 448 kts 236°
2026-04-16 14:50 -31.65206 23.00625 39911 ft 447 kts 236°
2026-04-16 14:50 -31.69297 22.95125 39909 ft 447 kts 236°
2026-04-16 14:51 -31.73389 22.89622 39908 ft 447 kts 236°
2026-04-16 14:51 -31.77477 22.84113 39904 ft 447 kts 236°
2026-04-16 14:53 -31.93729 22.62135 39902 ft 446 kts 237°
2026-04-16 14:54 -31.97796 22.56615 39895 ft 446 kts 237°
2026-04-16 14:54 -32.01857 22.51098 39900 ft 446 kts 237°
2026-04-16 14:55 -32.05914 22.45572 39900 ft 446 kts 237°
2026-04-16 14:55 -32.09972 22.40038 39879 ft 446 kts 237°
2026-04-16 14:56 -32.14032 22.34497 39885 ft 446 kts 237°
2026-04-16 14:56 -32.18061 22.28983 39897 ft 446 kts 237°
2026-04-16 14:57 -32.22118 22.23429 39889 ft 447 kts 237°
2026-04-16 14:57 -32.26174 22.17870 39892 ft 447 kts 237°
2026-04-16 14:58 -32.32251 22.09521 39873 ft 446 kts 237°
2026-04-16 14:59 -32.36296 22.03955 39890 ft 446 kts 237°
2026-04-16 14:59 -32.40334 21.98385 39887 ft 446 kts 237°
2026-04-16 15:00 -32.44375 21.92804 39891 ft 446 kts 237°
2026-04-16 15:00 -32.48388 21.87255 39891 ft 447 kts 237°
2026-04-16 15:01 -32.52419 21.81682 39878 ft 444 kts 237°
2026-04-16 15:01 -32.56435 21.76099 39882 ft 446 kts 237°
2026-04-16 15:02 -32.60467 21.70501 39870 ft 446 kts 237°
2026-04-16 15:02 -32.64496 21.64916 39872 ft 446 kts 237°
2026-04-16 15:03 -32.68491 21.59317 39892 ft 449 kts 238°
2026-04-16 15:03 -32.72555 21.53666 39891 ft 453 kts 237°
2026-04-16 15:04 -32.76623 21.47957 39884 ft 455 kts 237°
2026-04-16 15:04 -32.80719 21.42227 39890 ft 455 kts 237°
2026-04-16 15:05 -32.84766 21.36491 39883 ft 448 kts 241°
2026-04-16 15:05 -32.88001 21.30278 39875 ft 438 kts 249°
2026-04-16 15:06 -32.90706 21.23790 39884 ft 437 kts 250°
2026-04-16 15:06 -32.92894 21.18379 39874 ft 438 kts 250°
2026-04-16 15:07 -32.95560 21.11847 39891 ft 438 kts 250°
2026-04-16 15:07 -32.98320 21.05337 39882 ft 442 kts 249°
2026-04-16 15:08 -33.01079 20.98806 39892 ft 441 kts 250°
2026-04-16 15:08 -33.03797 20.92238 39881 ft 442 kts 250°
2026-04-16 15:09 -33.06481 20.85766 39871 ft 428 kts 250°
2026-04-16 15:09 -33.09103 20.79439 39877 ft 424 kts 250°
2026-04-16 15:10 -33.11706 20.73149 39880 ft 422 kts 250°
2026-04-16 15:10 -33.14297 20.66872 39765 ft 421 kts 250°
2026-04-16 15:10 -33.15574 20.63773 39466 ft 423 kts 250°
2026-04-16 15:11 -33.16872 20.60620 39095 ft 424 kts 250°
2026-04-16 15:11 -33.18173 20.57459 38736 ft 425 kts 250°
2026-04-16 15:11 -33.19480 20.54282 38370 ft 426 kts 250°
2026-04-16 15:11 -33.20788 20.51099 38020 ft 427 kts 250°
2026-04-16 15:12 -33.22094 20.47918 37629 ft 428 kts 250°
2026-04-16 15:12 -33.23403 20.44727 37216 ft 428 kts 250°
2026-04-16 15:12 -33.24716 20.41528 36792 ft 429 kts 250°
2026-04-16 15:12 -33.26031 20.38320 36356 ft 430 kts 250°
2026-04-16 15:13 -33.27344 20.35109 35821 ft 432 kts 250°
2026-04-16 15:13 -33.28670 20.31863 35084 ft 438 kts 250°
2026-04-16 15:13 -33.30013 20.28568 34258 ft 445 kts 249°
2026-04-16 15:13 -33.31374 20.25229 33480 ft 449 kts 249°
2026-04-16 15:14 -33.32745 20.21866 32767 ft 451 kts 249°
2026-04-16 15:14 -33.34119 20.18495 32063 ft 452 kts 249°
2026-04-16 15:14 -33.35474 20.15165 31235 ft 455 kts 249°
2026-04-16 15:14 -33.36886 20.11690 30358 ft 457 kts 249°
2026-04-16 15:15 -33.38269 20.08298 29902 ft 451 kts 249°
2026-04-16 15:15 -33.39633 20.04931 29514 ft 449 kts 250°
2026-04-16 15:15 -33.40792 20.01525 29121 ft 446 kts 256°
2026-04-16 15:15 -33.41663 19.97976 28754 ft 443 kts 259°
2026-04-16 15:16 -33.42482 19.94427 28432 ft 441 kts 259°
2026-04-16 15:16 -33.43295 19.90894 27616 ft 439 kts 259°
2026-04-16 15:16 -33.44105 19.87392 26835 ft 434 kts 258°
2026-04-16 15:16 -33.44912 19.83926 26053 ft 429 kts 259°
2026-04-16 15:17 -33.45713 19.80504 25290 ft 424 kts 258°
2026-04-16 15:17 -33.46505 19.77122 24529 ft 420 kts 258°
2026-04-16 15:17 -33.47291 19.73770 23780 ft 415 kts 258°
2026-04-16 15:17 -33.48066 19.70457 23053 ft 411 kts 258°
2026-04-16 15:18 -33.48834 19.67175 22330 ft 407 kts 258°
2026-04-16 15:18 -33.49595 19.63919 21622 ft 403 kts 258°
2026-04-16 15:18 -33.50345 19.60703 20909 ft 399 kts 258°
2026-04-16 15:18 -33.51089 19.57512 20232 ft 396 kts 259°
2026-04-16 15:19 -33.51825 19.54357 19551 ft 392 kts 259°
2026-04-16 15:19 -33.52553 19.51220 18867 ft 388 kts 259°
2026-04-16 15:19 -33.53272 19.48120 18201 ft 384 kts 259°
2026-04-16 15:19 -33.53976 19.45095 17551 ft 380 kts 259°
2026-04-16 15:20 -33.54690 19.42016 16865 ft 377 kts 258°
2026-04-16 15:20 -33.55376 19.39044 16228 ft 374 kts 259°
2026-04-16 15:20 -33.56065 19.36049 15619 ft 371 kts 259°
2026-04-16 15:20 -33.56748 19.33084 14999 ft 367 kts 259°
2026-04-16 15:21 -33.57425 19.30151 14346 ft 363 kts 259°
2026-04-16 15:21 -33.58091 19.27251 13743 ft 359 kts 259°
2026-04-16 15:21 -33.58752 19.24381 13118 ft 355 kts 259°
2026-04-16 15:21 -33.59404 19.21542 12498 ft 351 kts 259°
2026-04-16 15:22 -33.60051 19.18729 11878 ft 348 kts 259°
2026-04-16 15:22 -33.60690 19.15935 11296 ft 348 kts 259°
2026-04-16 15:22 -33.61333 19.13117 10807 ft 345 kts 259°
2026-04-16 15:22 -33.61952 19.10440 10646 ft 317 kts 259°
2026-04-16 15:23 -33.62516 19.08007 10493 ft 289 kts 259°
2026-04-16 15:23 -33.63035 19.05739 10348 ft 277 kts 260°
2026-04-16 15:23 -33.63540 19.03509 9875 ft 278 kts 259°
2026-04-16 15:23 -33.64047 19.01257 9354 ft 281 kts 259°
2026-04-16 15:24 -33.64562 18.98976 8813 ft 285 kts 258°
2026-04-16 15:24 -33.65082 18.96672 8333 ft 286 kts 258°
2026-04-16 15:24 -33.65601 18.94383 7943 ft 283 kts 258°
2026-04-16 15:24 -33.66116 18.92109 7519 ft 281 kts 257°
2026-04-16 15:25 -33.66629 18.89852 7135 ft 279 kts 257°
2026-04-16 15:25 -33.67135 18.87613 6708 ft 277 kts 257°
2026-04-16 15:25 -33.67637 18.85385 6297 ft 276 kts 256°
2026-04-16 15:25 -33.68138 18.83173 5880 ft 274 kts 256°
2026-04-16 15:26 -33.68635 18.80975 5449 ft 272 kts 256°
2026-04-16 15:26 -33.69131 18.78791 5045 ft 270 kts 256°
2026-04-16 15:26 -33.69616 18.76632 4753 ft 263 kts 256°
2026-04-16 15:26 -33.69782 18.74499 4293 ft 258 kts 280°
2026-04-16 15:27 -33.69072 18.72568 4068 ft 254 kts 307°
2026-04-16 15:27 -33.67881 18.70917 4023 ft 263 kts 312°
2026-04-16 15:27 -33.66626 18.69344 3992 ft 257 kts 313°
2026-04-16 15:27 -33.65677 18.67643 3967 ft 251 kts 287°
2026-04-16 15:28 -33.65597 18.65554 3886 ft 259 kts 256°
2026-04-16 15:28 -33.66394 18.63477 3953 ft 295 kts 236°
2026-04-16 15:28 -33.67755 18.61566 3710 ft 299 kts 226°
2026-04-16 15:28 -33.69142 18.59922 3678 ft 260 kts 225°
2026-04-16 15:29 -33.70332 18.58494 3599 ft 229 kts 226°
2026-04-16 15:29 -33.71401 18.57179 3616 ft 213 kts 226°
2026-04-16 15:29 -33.72421 18.55909 3468 ft 212 kts 227°
2026-04-16 15:29 -33.73456 18.54694 3301 ft 199 kts 216°
2026-04-16 15:30 -33.74658 18.54060 3261 ft 182 kts 198°
2026-04-16 15:30 -33.75874 18.53762 3247 ft 181 kts 178°
2026-04-16 15:30 -33.77111 18.54069 3277 ft 183 kts 168°
2026-04-16 15:30 -33.78345 18.54431 3273 ft 181 kts 168°
2026-04-16 15:31 -33.79562 18.54802 3258 ft 180 kts 167°
2026-04-16 15:31 -33.80755 18.55176 3261 ft 179 kts 167°
2026-04-16 15:31 -33.81970 18.55562 3119 ft 179 kts 167°
2026-04-16 15:31 -33.83139 18.55933 2900 ft 169 kts 167°
2026-04-16 15:32 -33.84223 18.56277 2692 ft 156 kts 167°
2026-04-16 15:32 -33.85232 18.56600 2472 ft 144 kts 166°
2026-04-16 15:32 -33.86185 18.56900 2303 ft 143 kts 166°
2026-04-16 15:32 -33.87148 18.57204 2087 ft 144 kts 166°
2026-04-16 15:33 -33.88116 18.57510 1873 ft 143 kts 166°
2026-04-16 15:33 -33.89065 18.57813 1677 ft 141 kts 165°
2026-04-16 15:33 -33.90016 18.58112 1468 ft 139 kts 165°
2026-04-16 15:33 -33.90948 18.58410 1269 ft 139 kts 164°
2026-04-16 15:34 -33.91879 18.58705 1073 ft 138 kts 165°
2026-04-16 15:34 -33.92810 18.58999 883 ft 139 kts 165°
2026-04-16 15:34 -33.93745 18.59296 681 ft 138 kts 165°
2026-04-16 15:34 -33.94674 18.59590 479 ft 138 kts 165°
2026-04-16 15:35 -33.95597 18.59888 300 ft 138 kts 165°
2026-04-16 15:35 -33.96510 18.60181 164 ft 130 kts 166°
2026-04-16 15:35 -33.97179 18.60388 159 ft 58 kts 165°
2026-04-16 15:35 -33.97472 18.60481 155 ft 42 kts 165°
2026-04-16 15:36 -33.97721 18.60552 159 ft 26 kts 173°
2026-04-16 15:36 -33.97771 18.60436 158 ft 22 kts 279°
2026-04-16 15:36 -33.97743 18.60291 161 ft 15 kts 284°
2026-04-16 15:36 -33.97727 18.60223 161 ft 0 kts 295°